Time,TemperatureF,DewpointF,PressureIn,WindDirection,WindDirectionDegrees,WindSpeedMPH,WindSpeedGustMPH,Humidity,HourlyPrecipIn,Conditions,Clouds,dailyrainin,SolarRadiationWatts/m^2,SoftwareType,DateUTC
2013-02-10 00:00:00,65.2,63.1,29.93,SSW,202,1.0,7.0,93,0.00,,---,0.00,0.00,VWS V14.01,2013-02-10 06:00:00,
2013-02-10 00:01:00,65.2,63.4,29.93,SSE,159,3.0,5.0,94,0.00,,---,0.00,0.00,VWS V14.01,2013-02-10 06:01:00,
2013-02-10 00:02:00,65.2,63.4,29.93,SE,134,3.0,8.0,94,0.00,,---,0.00,0.00,VWS V14.01,2013-02-10 06:02:00,
2013-02-10 00:03:00,65.3,63.5,29.93,SE,132,0.0,8.0,94,0.00,,---,0.00,0.00,VWS V14.01,2013-02-10 06:03:00,
2013-02-10 00:05:00,65.3,63.5,29.93,SSE,159,4.0,8.0,94,0.00,,---,0.00,0.00,VWS V14.01,2013-02-10 06:05:00,
2013-02-10 00:08:00,65.3,63.5,29.93,SE,129,3.0,8.0,94,0.00,,---,0.00,0.00,VWS V14.01,2013-02-10 06:08:00,
2013-02-10 00:09:00,65.3,63.5,29.93,SE,126,1.0,8.0,94,0.00,,---,0.00,0.00,VWS V14.01,2013-02-10 06:09:00,
2013-02-10 00:10:00,65.4,63.6,29.93,East,93,5.0,8.0,94,0.00,,---,0.00,0.00,VWS V14.01,2013-02-10 06:10:00,
2013-02-10 00:14:00,65.4,63.6,29.93,SSE,159,1.0,8.0,94,0.00,,---,0.00,0.00,VWS V14.01,2013-02-10 06:14:00,
2013-02-10 00:15:00,65.4,63.6,29.93,South,180,0.0,8.0,94,0.00,,---,0.00,0.00,VWS V14.01,2013-02-10 06:15:00,
2013-02-10 00:16:00,65.4,63.6,29.93,South,180,0.0,8.0,94,0.00,,---,0.00,0.00,VWS V14.01,2013-02-10 06:16:00,
2013-02-10 00:19:00,65.4,63.6,29.93,SE,129,0.0,8.0,94,0.00,,---,0.00,0.00,VWS V14.01,2013-02-10 06:19:00,
2013-02-10 00:21:00,65.5,63.7,29.93,SSE,156,4.0,8.0,94,0.00,,---,0.00,0.00,VWS V14.01,2013-02-10 06:21:00,
2013-02-10 00:22:00,65.5,63.7,29.93,East,98,2.0,8.0,94,0.00,,---,0.00,0.00,VWS V14.01,2013-02-10 06:22:00,
2013-02-10 00:24:00,65.5,63.7,29.93,ENE,71,0.0,8.0,94,0.00,,---,0.00,0.00,VWS V14.01,2013-02-10 06:24:00,
2013-02-10 00:27:00,65.5,63.7,29.93,SSE,160,3.0,8.0,94,0.00,,---,0.00,0.00,VWS V14.01,2013-02-10 06:27:00,
2013-02-10 00:28:00,65.5,63.7,29.93,ESE,109,0.0,8.0,94,0.00,,---,0.00,0.00,VWS V14.01,2013-02-10 06:28:00,
2013-02-10 00:29:00,65.5,63.7,29.93,SE,124,2.0,8.0,94,0.00,,---,0.00,0.00,VWS V14.01,2013-02-10 06:29:00,
2013-02-10 00:30:00,65.5,63.7,29.93,SE,124,2.0,8.0,94,0.00,,---,0.00,0.00,VWS V14.01,2013-02-10 06:30:00,
2013-02-10 00:33:00,65.6,63.8,29.93,SE,137,0.0,5.0,94,0.00,,---,0.00,0.00,VWS V14.01,2013-02-10 06:33:00,
2013-02-10 00:34:00,65.6,63.8,29.93,ESE,114,3.0,5.0,94,0.00,,---,0.00,0.00,VWS V14.01,2013-02-10 06:34:00,
2013-02-10 00:38:00,65.6,63.8,29.92,ESE,119,2.0,5.0,94,0.00,,---,0.00,0.00,VWS V14.01,2013-02-10 06:38:00,
2013-02-10 00:39:00,65.6,63.8,29.92,ESE,119,0.0,5.0,94,0.00,,---,0.00,0.00,VWS V14.01,2013-02-10 06:39:00,
2013-02-10 00:40:00,65.6,63.8,29.92,SSE,150,7.0,7.0,94,0.00,,---,0.00,0.00,VWS V14.01,2013-02-10 06:40:00,
2013-02-10 00:41:00,65.6,63.8,29.92,SE,145,3.0,8.0,94,0.00,,---,0.00,0.00,VWS V14.01,2013-02-10 06:41:00,
2013-02-10 00:44:00,65.6,63.8,29.92,SSE,151,3.0,8.0,94,0.00,,---,0.00,0.00,VWS V14.01,2013-02-10 06:44:00,
2013-02-10 00:46:00,65.7,63.9,29.92,SSE,160,0.0,8.0,94,0.00,,---,0.00,0.00,VWS V14.01,2013-02-10 06:46:00,
2013-02-10 00:47:00,65.7,63.9,29.92,SSE,160,0.0,8.0,94,0.00,,---,0.00,0.00,VWS V14.01,2013-02-10 06:47:00,
2013-02-10 00:48:00,65.7,63.9,29.92,ESE,114,3.0,8.0,94,0.00,,---,0.00,0.00,VWS V14.01,2013-02-10 06:48:00,
2013-02-10 00:49:00,65.7,63.9,29.92,ESE,117,0.0,8.0,94,0.00,,---,0.00,0.00,VWS V14.01,2013-02-10 06:49:00,
2013-02-10 00:52:00,65.7,63.9,29.92,SE,137,1.0,8.0,94,0.00,,---,0.00,0.00,VWS V14.01,2013-02-10 06:52:00,
2013-02-10 00:55:00,65.7,63.9,29.92,East,90,1.0,8.0,94,0.00,,---,0.00,0.00,VWS V14.01,2013-02-10 06:55:00,
2013-02-10 00:56:00,65.7,63.9,29.92,SSE,152,3.0,8.0,94,0.00,,---,0.00,0.00,VWS V14.01,2013-02-10 06:56:00,
2013-02-10 00:57:00,65.7,63.9,29.92,SSE,152,0.0,8.0,94,0.00,,---,0.00,0.00,VWS V14.01,2013-02-10 06:57:00,
2013-02-10 00:58:00,65.7,63.9,29.92,SSE,166,1.0,8.0,94,0.00,,---,0.00,0.00,VWS V14.01,2013-02-10 06:58:00,
2013-02-10 01:00:00,65.7,63.9,29.92,SSE,166,0.0,8.0,94,0.00,,---,0.00,0.00,VWS V14.01,2013-02-10 07:00:00,
2013-02-10 01:01:00,65.7,63.9,29.92,ESE,109,2.0,2.0,94,0.00,,---,0.00,0.00,VWS V14.01,2013-02-10 07:01:00,
2013-02-10 01:02:00,65.8,64.0,29.92,ESE,107,1.0,2.0,94,0.00,,---,0.00,0.00,VWS V14.01,2013-02-10 07:02:00,
2013-02-10 01:03:00,65.7,63.9,29.92,East,90,2.0,6.0,94,0.00,,---,0.00,0.00,VWS V14.01,2013-02-10 07:03:00,
2013-02-10 01:06:00,65.7,63.9,29.92,SSE,160,1.0,6.0,94,0.00,,---,0.00,0.00,VWS V14.01,2013-02-10 07:06:00,
2013-02-10 01:07:00,65.7,63.9,29.92,SSE,159,0.0,6.0,94,0.00,,---,0.00,0.00,VWS V14.01,2013-02-10 07:07:00,
2013-02-10 01:08:00,65.8,64.0,29.92,SSE,159,0.0,6.0,94,0.00,,---,0.00,0.00,VWS V14.01,2013-02-10 07:08:00,
2013-02-10 01:09:00,65.7,63.9,29.92,SSE,159,0.0,6.0,94,0.00,,---,0.00,0.00,VWS V14.01,2013-02-10 07:09:00,
2013-02-10 01:11:00,65.8,64.0,29.91,SSE,159,0.0,6.0,94,0.00,,---,0.00,0.00,VWS V14.01,2013-02-10 07:11:00,
2013-02-10 01:13:00,65.8,64.0,29.92,SSE,159,0.0,6.0,94,0.00,,---,0.00,0.00,VWS V14.01,2013-02-10 07:13:00,
2013-02-10 01:14:00,65.8,64.0,29.92,South,170,0.0,6.0,94,0.00,,---,0.00,0.00,VWS V14.01,2013-02-10 07:14:00,
2013-02-10 01:16:00,65.8,64.0,29.92,East,98,0.0,6.0,94,0.00,,---,0.00,0.00,VWS V14.01,2013-02-10 07:16:00,
2013-02-10 01:18:00,65.8,64.0,29.92,East,98,0.0,6.0,94,0.00,,---,0.00,0.00,VWS V14.01,2013-02-10 07:18:00,
2013-02-10 01:22:00,65.8,64.0,29.92,ESE,118,1.0,6.0,94,0.00,,---,0.00,0.00,VWS V14.01,2013-02-10 07:22:00,
2013-02-10 01:23:00,65.8,64.0,29.92,ESE,115,2.0,6.0,94,0.00,,---,0.00,0.00,VWS V14.01,2013-02-10 07:23:00,
2013-02-10 01:24:00,65.8,64.0,29.92,ESE,115,0.0,6.0,94,0.00,,---,0.00,0.00,VWS V14.01,2013-02-10 07:24:00,
2013-02-10 01:28:00,65.8,64.0,29.91,ESE,114,1.0,6.0,94,0.00,,---,0.00,0.00,VWS V14.01,2013-02-10 07:28:00,
2013-02-10 01:29:00,65.8,64.0,29.91,ESE,114,1.0,6.0,94,0.00,,---,0.00,0.00,VWS V14.01,2013-02-10 07:29:00,
2013-02-10 01:30:00,65.9,64.1,29.91,ESE,114,0.0,0.0,94,0.00,,---,0.00,0.00,VWS V14.01,2013-02-10 07:30:00,
2013-02-10 01:33:00,65.9,64.1,29.91,East,88,0.0,3.0,94,0.00,,---,0.00,0.00,VWS V14.01,2013-02-10 07:33:00,
2013-02-10 01:35:00,65.9,64.1,29.91,East,88,0.0,3.0,94,0.00,,---,0.00,0.00,VWS V14.01,2013-02-10 07:35:00,
2013-02-10 01:36:00,65.9,64.1,29.91,East,88,0.0,3.0,94,0.00,,---,0.00,0.00,VWS V14.01,2013-02-10 07:36:00,
2013-02-10 01:40:00,65.9,64.1,29.91,South,189,0.0,3.0,94,0.00,,---,0.00,0.00,VWS V14.01,2013-02-10 07:40:00,
2013-02-10 01:41:00,65.9,64.1,29.91,East,82,5.0,5.0,94,0.00,,---,0.00,0.00,VWS V14.01,2013-02-10 07:41:00,
2013-02-10 01:42:00,65.9,64.1,29.91,SE,131,0.0,5.0,94,0.00,,---,0.00,0.00,VWS V14.01,2013-02-10 07:42:00,
2013-02-10 01:46:00,66.0,64.2,29.91,ESE,115,2.0,5.0,94,0.00,,---,0.00,0.00,VWS V14.01,2013-02-10 07:46:00,
2013-02-10 01:48:00,66.0,64.2,29.91,ESE,115,0.0,5.0,94,0.00,,---,0.00,0.00,VWS V14.01,2013-02-10 07:48:00,
2013-02-10 01:51:00,66.1,64.3,29.90,East,100,1.0,5.0,94,0.00,,---,0.00,0.00,VWS V14.01,2013-02-10 07:51:00,
2013-02-10 01:52:00,66.1,64.3,29.90,East,100,0.0,5.0,94,0.00,,---,0.00,0.00,VWS V14.01,2013-02-10 07:52:00,
2013-02-10 01:53:00,66.1,64.6,29.90,East,101,2.0,5.0,95,0.00,,---,0.00,0.00,VWS V14.01,2013-02-10 07:53:00,
2013-02-10 01:54:00,66.1,64.6,29.90,East,101,0.0,5.0,95,0.00,,---,0.00,0.00,VWS V14.01,2013-02-10 07:54:00,
2013-02-10 01:57:00,66.2,64.7,29.90,South,175,0.0,5.0,95,0.00,,---,0.00,0.00,VWS V14.01,2013-02-10 07:57:00,
2013-02-10 01:58:00,66.2,64.7,29.90,South,175,0.0,5.0,95,0.00,,---,0.00,0.00,VWS V14.01,2013-02-10 07:58:00,
2013-02-10 02:00:00,66.2,64.7,29.90,SE,132,1.0,4.0,95,0.00,,---,0.00,0.00,VWS V14.01,2013-02-10 08:00:00,
2013-02-10 02:03:00,66.3,64.8,29.90,East,83,0.0,5.0,95,0.00,,---,0.00,0.00,VWS V14.01,2013-02-10 08:03:00,
2013-02-10 02:06:00,66.5,65.0,29.90,South,170,3.0,7.0,95,0.00,,---,0.00,0.00,VWS V14.01,2013-02-10 08:06:00,
2013-02-10 02:08:00,66.7,65.2,29.90,SSE,151,2.0,8.0,95,0.00,,---,0.00,0.00,VWS V14.01,2013-02-10 08:08:00,
2013-02-10 02:11:00,66.8,65.3,29.90,SE,142,2.0,9.0,95,0.00,,---,0.00,0.00,VWS V14.01,2013-02-10 08:11:00,
2013-02-10 02:12:00,66.9,65.4,29.90,SE,140,2.0,9.0,95,0.00,,---,0.00,0.00,VWS V14.01,2013-02-10 08:12:00,
2013-02-10 02:13:00,67.0,65.5,29.89,South,179,3.0,9.0,95,0.00,,---,0.00,0.00,VWS V14.01,2013-02-10 08:13:00,
2013-02-10 02:16:00,67.1,65.6,29.90,SSE,149,3.0,9.0,95,0.00,,---,0.00,0.00,VWS V14.01,2013-02-10 08:16:00,
2013-02-10 02:17:00,67.1,65.6,29.89,SSE,160,6.0,9.0,95,0.00,,---,0.00,0.00,VWS V14.01,2013-02-10 08:17:00,
2013-02-10 02:18:00,67.2,65.7,29.89,ESE,104,0.0,9.0,95,0.00,,---,0.00,0.00,VWS V14.01,2013-02-10 08:18:00,
2013-02-10 02:19:00,67.2,65.7,29.89,SSE,149,2.0,9.0,95,0.00,,---,0.00,0.00,VWS V14.01,2013-02-10 08:19:00,
2013-02-10 02:22:00,67.3,65.8,29.89,SE,127,1.0,9.0,95,0.00,,---,0.00,0.00,VWS V14.01,2013-02-10 08:22:00,
2013-02-10 02:23:00,67.3,65.8,29.89,East,79,1.0,9.0,95,0.00,,---,0.00,0.00,VWS V14.01,2013-02-10 08:23:00,
2013-02-10 02:24:00,67.3,65.8,29.89,SSE,165,0.0,9.0,95,0.00,,---,0.00,0.00,VWS V14.01,2013-02-10 08:24:00,
2013-02-10 02:28:00,67.4,65.9,29.89,SSE,163,3.0,9.0,95,0.00,,---,0.00,0.00,VWS V14.01,2013-02-10 08:28:00,
2013-02-10 02:29:00,67.4,65.9,29.89,SE,146,2.0,9.0,95,0.00,,---,0.00,0.00,VWS V14.01,2013-02-10 08:29:00,
2013-02-10 02:30:00,67.4,65.9,29.89,SE,128,2.0,9.0,95,0.00,,---,0.00,0.00,VWS V14.01,2013-02-10 08:30:00,
2013-02-10 02:32:00,67.5,66.0,29.89,ESE,112,2.0,8.0,95,0.00,,---,0.00,0.00,VWS V14.01,2013-02-10 08:32:00,
2013-02-10 02:33:00,67.5,66.0,29.89,SE,146,5.0,8.0,95,0.00,,---,0.00,0.00,VWS V14.01,2013-02-10 08:33:00,
2013-02-10 02:34:00,67.6,66.1,29.89,SE,144,1.0,8.0,95,0.00,,---,0.00,0.00,VWS V14.01,2013-02-10 08:34:00,
2013-02-10 02:37:00,67.6,66.1,29.89,SE,128,2.0,8.0,95,0.00,,---,0.00,0.00,VWS V14.01,2013-02-10 08:37:00,
2013-02-10 02:38:00,67.6,66.1,29.89,SSE,150,3.0,8.0,95,0.00,,---,0.00,0.00,VWS V14.01,2013-02-10 08:38:00,
2013-02-10 02:40:00,67.6,66.1,29.88,ESE,117,1.0,8.0,95,0.00,,---,0.00,0.00,VWS V14.01,2013-02-10 08:40:00,
2013-02-10 02:43:00,67.7,66.2,29.88,East,90,1.0,8.0,95,0.00,,---,0.00,0.00,VWS V14.01,2013-02-10 08:43:00,
2013-02-10 02:44:00,67.7,66.2,29.88,SE,138,4.0,8.0,95,0.00,,---,0.00,0.00,VWS V14.01,2013-02-10 08:44:00,
2013-02-10 02:45:00,67.7,66.2,29.88,East,93,2.0,8.0,95,0.00,,---,0.00,0.00,VWS V14.01,2013-02-10 08:45:00,
2013-02-10 02:48:00,67.7,66.2,29.88,South,184,7.0,8.0,95,0.00,,---,0.00,0.00,VWS V14.01,2013-02-10 08:48:00,
2013-02-10 02:49:00,67.7,66.2,29.88,ESE,109,3.0,8.0,95,0.00,,---,0.00,0.00,VWS V14.01,2013-02-10 08:49:00,
2013-02-10 02:50:00,67.7,66.2,29.88,SSE,155,2.0,9.0,95,0.00,,---,0.00,0.00,VWS V14.01,2013-02-10 08:50:00,
2013-02-10 02:54:00,67.8,66.3,29.87,SSE,153,0.0,9.0,95,0.00,,---,0.00,0.00,VWS V14.01,2013-02-10 08:54:00,
2013-02-10 02:55:00,67.8,66.3,29.87,SSE,153,1.0,9.0,95,0.00,,---,0.00,0.00,VWS V14.01,2013-02-10 08:55:00,
2013-02-10 02:56:00,67.8,66.3,29.87,ESE,117,1.0,9.0,95,0.00,,---,0.00,0.00,VWS V14.01,2013-02-10 08:56:00,
2013-02-10 02:57:00,67.8,66.3,29.88,SE,146,5.0,9.0,95,0.00,,---,0.00,0.00,VWS V14.01,2013-02-10 08:57:00,
2013-02-10 02:59:00,67.9,66.4,29.87,SE,146,2.0,10.0,95,0.00,,---,0.00,0.00,VWS V14.01,2013-02-10 08:59:00,
2013-02-10 03:00:00,67.8,66.3,29.87,SSE,147,3.0,10.0,95,0.00,,---,0.00,0.00,VWS V14.01,2013-02-10 09:00:00,
2013-02-10 03:01:00,67.9,66.4,29.87,ESE,115,2.0,3.0,95,0.00,,---,0.00,0.00,VWS V14.01,2013-02-10 09:01:00,
2013-02-10 03:02:00,67.9,66.4,29.88,SSE,157,2.0,3.0,95,0.00,,---,0.00,0.00,VWS V14.01,2013-02-10 09:02:00,
2013-02-10 03:03:00,67.9,66.4,29.87,ENE,74,0.0,6.0,95,0.00,,---,0.00,0.00,VWS V14.01,2013-02-10 09:03:00,
2013-02-10 03:07:00,67.9,66.4,29.88,SSE,148,2.0,6.0,95,0.00,,---,0.00,0.00,VWS V14.01,2013-02-10 09:07:00,
2013-02-10 03:08:00,67.9,66.4,29.88,SE,131,0.0,6.0,95,0.00,,---,0.00,0.00,VWS V14.01,2013-02-10 09:08:00,
2013-02-10 03:09:00,67.9,66.4,29.88,SE,132,0.0,6.0,95,0.00,,---,0.00,0.00,VWS V14.01,2013-02-10 09:09:00,
2013-02-10 03:13:00,68.0,66.5,29.88,SSE,152,3.0,7.0,95,0.00,,---,0.00,0.00,VWS V14.01,2013-02-10 09:13:00,
2013-02-10 03:14:00,68.0,66.5,29.88,South,191,7.0,7.0,95,0.00,,---,0.00,0.00,VWS V14.01,2013-02-10 09:14:00,
2013-02-10 03:18:00,68.0,66.5,29.87,SE,141,3.0,11.0,95,0.00,,---,0.00,0.00,VWS V14.01,2013-02-10 09:18:00,
2013-02-10 03:19:00,68.1,66.6,29.87,SE,146,5.0,11.0,95,0.00,,---,0.00,0.00,VWS V14.01,2013-02-10 09:19:00,
2013-02-10 03:20:00,68.1,66.6,29.87,South,187,2.0,11.0,95,0.00,,---,0.00,0.00,VWS V14.01,2013-02-10 09:20:00,
2013-02-10 03:24:00,68.1,66.6,29.87,SE,128,5.0,13.0,95,0.00,,---,0.00,0.00,VWS V14.01,2013-02-10 09:24:00,
2013-02-10 03:25:00,68.1,66.6,29.87,South,181,4.0,13.0,95,0.00,,---,0.00,0.00,VWS V14.01,2013-02-10 09:25:00,
2013-02-10 03:28:00,68.1,66.6,29.87,SE,140,2.0,13.0,95,0.00,,---,0.00,0.00,VWS V14.01,2013-02-10 09:28:00,
2013-02-10 03:29:00,68.2,66.7,29.87,SSE,147,3.0,13.0,95,0.00,,---,0.00,0.00,VWS V14.01,2013-02-10 09:29:00,
2013-02-10 03:30:00,68.2,66.7,29.87,SE,136,4.0,6.0,95,0.00,,---,0.00,0.00,VWS V14.01,2013-02-10 09:30:00,
2013-02-10 03:33:00,68.2,66.7,29.87,ESE,114,5.0,6.0,95,0.00,,---,0.00,0.00,VWS V14.01,2013-02-10 09:33:00,
2013-02-10 03:34:00,68.2,66.7,29.87,SE,146,3.0,7.0,95,0.00,,---,0.00,0.00,VWS V14.01,2013-02-10 09:34:00,
2013-02-10 03:36:00,68.3,66.8,29.87,SSE,167,6.0,7.0,95,0.00,,---,0.00,0.00,VWS V14.01,2013-02-10 09:36:00,
2013-02-10 03:39:00,68.3,66.8,29.87,ENE,74,0.0,7.0,95,0.00,,---,0.00,0.00,VWS V14.01,2013-02-10 09:39:00,
2013-02-10 03:40:00,68.3,66.8,29.87,ENE,74,0.0,7.0,95,0.00,,---,0.00,0.00,VWS V14.01,2013-02-10 09:40:00,
2013-02-10 03:41:00,68.3,66.8,29.87,SSE,163,5.0,8.0,95,0.00,,---,0.00,0.00,VWS V14.01,2013-02-10 09:41:00,
2013-02-10 03:42:00,68.3,66.8,29.87,SE,138,6.0,8.0,95,0.00,,---,0.00,0.00,VWS V14.01,2013-02-10 09:42:00,
2013-02-10 03:44:00,68.4,66.9,29.87,SE,144,4.0,8.0,95,0.00,,---,0.00,0.00,VWS V14.01,2013-02-10 09:44:00,
2013-02-10 03:45:00,68.4,66.9,29.87,SE,126,3.0,8.0,95,0.00,,---,0.00,0.00,VWS V14.01,2013-02-10 09:45:00,
2013-02-10 03:47:00,68.4,66.9,29.87,SE,126,1.0,8.0,95,0.00,,---,0.00,0.00,VWS V14.01,2013-02-10 09:47:00,
2013-02-10 03:48:00,68.5,67.0,29.87,SE,143,3.0,8.0,95,0.00,,---,0.00,0.00,VWS V14.01,2013-02-10 09:48:00,
2013-02-10 03:52:00,68.5,66.7,29.87,WNW,285,4.0,10.0,94,0.00,,---,0.00,0.00,VWS V14.01,2013-02-10 09:52:00,
2013-02-10 03:53:00,68.6,66.8,29.87,ESE,122,4.0,10.0,94,0.00,,---,0.00,0.00,VWS V14.01,2013-02-10 09:53:00,
2013-02-10 03:55:00,68.6,66.8,29.86,SSE,167,6.0,13.0,94,0.00,,---,0.00,0.00,VWS V14.01,2013-02-10 09:55:00,
2013-02-10 03:59:00,68.7,66.9,29.86,SSE,148,9.0,13.0,94,0.00,,---,0.00,0.00,VWS V14.01,2013-02-10 09:59:00,
2013-02-10 04:00:00,68.8,67.3,29.86,SE,126,6.0,13.0,95,0.00,,---,0.00,0.00,VWS V14.01,2013-02-10 10:00:00,
2013-02-10 04:01:00,68.8,67.3,29.86,SSE,166,2.0,7.0,95,0.00,,---,0.00,0.00,VWS V14.01,2013-02-10 10:01:00,
2013-02-10 04:04:00,68.8,67.0,29.85,SE,136,12.0,16.0,94,0.00,,---,0.00,0.00,VWS V14.01,2013-02-10 10:04:00,
2013-02-10 04:05:00,68.9,67.1,29.85,SSE,158,3.0,16.0,94,0.00,,---,0.00,0.00,VWS V14.01,2013-02-10 10:05:00,
2013-02-10 04:06:00,68.9,67.1,29.85,SE,145,5.0,16.0,94,0.00,,---,0.00,0.00,VWS V14.01,2013-02-10 10:06:00,
2013-02-10 04:07:00,68.9,67.1,29.85,SSE,147,7.0,16.0,94,0.00,,---,0.00,0.00,VWS V14.01,2013-02-10 10:07:00,
2013-02-10 04:10:00,69.0,67.2,29.85,SSE,155,5.0,16.0,94,0.00,,---,0.00,0.00,VWS V14.01,2013-02-10 10:10:00,
2013-02-10 04:11:00,69.0,67.2,29.85,East,97,3.0,16.0,94,0.00,,---,0.00,0.00,VWS V14.01,2013-02-10 10:11:00,
2013-02-10 04:12:00,69.0,67.2,29.85,SSE,151,7.0,16.0,94,0.00,,---,0.00,0.00,VWS V14.01,2013-02-10 10:12:00,
2013-02-10 04:17:00,69.2,67.4,29.85,SE,132,8.0,16.0,94,0.00,,---,0.00,0.00,VWS V14.01,2013-02-10 10:17:00,
2013-02-10 04:19:00,69.3,67.5,29.84,SE,140,8.0,16.0,94,0.00,,---,0.00,0.00,VWS V14.01,2013-02-10 10:19:00,
2013-02-10 04:22:00,69.3,67.5,29.84,SSE,149,6.0,16.0,94,0.00,,---,0.00,0.00,VWS V14.01,2013-02-10 10:22:00,
2013-02-10 04:23:00,69.3,67.5,29.84,East,100,7.0,16.0,94,0.00,,---,0.00,0.00,VWS V14.01,2013-02-10 10:23:00,
2013-02-10 04:24:00,69.4,67.6,29.84,South,169,8.0,16.0,94,0.00,,---,0.00,0.00,VWS V14.01,2013-02-10 10:24:00,
2013-02-10 04:25:00,69.4,67.6,29.83,SE,139,6.0,16.0,94,0.00,,---,0.00,0.00,VWS V14.01,2013-02-10 10:25:00,
2013-02-10 04:28:00,69.4,67.6,29.83,SSE,167,5.0,16.0,94,0.00,,---,0.00,0.00,VWS V14.01,2013-02-10 10:28:00,
2013-02-10 04:29:00,69.4,67.6,29.83,SE,138,7.0,16.0,94,0.00,,---,0.00,0.00,VWS V14.01,2013-02-10 10:29:00,
2013-02-10 04:30:00,69.4,67.6,29.83,SSE,154,5.0,16.0,94,0.00,,---,0.00,0.00,VWS V14.01,2013-02-10 10:30:00,
2013-02-10 04:31:00,69.4,67.6,29.83,South,171,1.0,8.0,94,0.00,,---,0.00,0.00,VWS V14.01,2013-02-10 10:31:00,
2013-02-10 04:33:00,69.4,67.6,29.83,ESE,111,8.0,15.0,94,0.00,,---,0.00,0.00,VWS V14.01,2013-02-10 10:33:00,
2013-02-10 04:35:00,69.5,67.7,29.82,South,174,3.0,15.0,94,0.00,,---,0.00,0.00,VWS V14.01,2013-02-10 10:35:00,
2013-02-10 04:36:00,69.5,67.7,29.82,SSE,157,1.0,15.0,94,0.00,,---,0.00,0.00,VWS V14.01,2013-02-10 10:36:00,
2013-02-10 04:39:00,69.5,67.7,29.82,SSE,148,5.0,15.0,94,0.00,,---,0.00,0.00,VWS V14.01,2013-02-10 10:39:00,
2013-02-10 04:40:00,69.5,67.7,29.82,ESE,120,11.0,15.0,94,0.00,,---,0.00,0.00,VWS V14.01,2013-02-10 10:40:00,
2013-02-10 04:41:00,69.5,67.7,29.82,SSE,165,4.0,15.0,94,0.00,,---,0.00,0.00,VWS V14.01,2013-02-10 10:41:00,
2013-02-10 04:42:00,69.5,67.7,29.82,SE,142,14.0,15.0,94,0.00,,---,0.00,0.00,VWS V14.01,2013-02-10 10:42:00,
2013-02-10 04:45:00,69.6,67.8,29.83,SE,144,5.0,15.0,94,0.00,,---,0.00,0.00,VWS V14.01,2013-02-10 10:45:00,
2013-02-10 04:46:00,69.6,67.8,29.83,ESE,122,8.0,15.0,94,0.00,,---,0.00,0.00,VWS V14.01,2013-02-10 10:46:00,
2013-02-10 04:48:00,69.6,67.8,29.83,SSE,165,4.0,15.0,94,0.00,,---,0.00,0.00,VWS V14.01,2013-02-10 10:48:00,
2013-02-10 04:51:00,69.6,67.8,29.83,SSE,154,3.0,15.0,94,0.00,,---,0.00,0.00,VWS V14.01,2013-02-10 10:51:00,
2013-02-10 04:52:00,69.7,67.9,29.84,South,180,6.0,15.0,94,0.00,,---,0.00,0.00,VWS V14.01,2013-02-10 10:52:00,
2013-02-10 04:53:00,69.7,67.9,29.84,SE,135,5.0,15.0,94,0.00,,---,0.00,0.00,VWS V14.01,2013-02-10 10:53:00,
2013-02-10 04:56:00,69.7,67.6,29.84,SSE,165,4.0,15.0,93,0.00,,---,0.00,0.00,VWS V14.01,2013-02-10 10:56:00,
2013-02-10 04:58:00,69.7,67.6,29.84,SE,130,1.0,15.0,93,0.00,,---,0.00,0.00,VWS V14.01,2013-02-10 10:58:00,
2013-02-10 04:59:00,69.8,67.7,29.83,South,171,5.0,15.0,93,0.00,,---,0.00,0.00,VWS V14.01,2013-02-10 10:59:00,
2013-02-10 05:00:00,69.7,67.6,29.83,South,180,10.0,15.0,93,0.00,,---,0.00,0.00,VWS V14.01,2013-02-10 11:00:00,
2013-02-10 05:01:00,69.8,67.7,29.84,ESE,118,11.0,14.0,93,0.00,,---,0.00,0.00,VWS V14.01,2013-02-10 11:01:00,
2013-02-10 05:02:00,69.8,67.7,29.84,SSE,157,4.0,14.0,93,0.00,,---,0.00,0.00,VWS V14.01,2013-02-10 11:02:00,
2013-02-10 05:03:00,69.8,67.7,29.84,SSE,163,4.0,14.0,93,0.00,,---,0.00,0.00,VWS V14.01,2013-02-10 11:03:00,
2013-02-10 05:06:00,69.8,67.7,29.84,South,169,4.0,14.0,93,0.00,,---,0.00,0.00,VWS V14.01,2013-02-10 11:06:00,
2013-02-10 05:07:00,69.9,67.8,29.84,South,170,8.0,14.0,93,0.00,,---,0.00,0.00,VWS V14.01,2013-02-10 11:07:00,
2013-02-10 05:08:00,69.9,67.8,29.84,SW,230,8.0,14.0,93,0.00,,---,0.00,0.00,VWS V14.01,2013-02-10 11:08:00,
2013-02-10 05:12:00,69.9,67.8,29.85,South,171,5.0,14.0,93,0.00,,---,0.00,0.00,VWS V14.01,2013-02-10 11:12:00,
2013-02-10 05:13:00,69.9,67.8,29.85,SSE,150,5.0,14.0,93,0.00,,---,0.00,0.00,VWS V14.01,2013-02-10 11:13:00,
2013-02-10 05:14:00,69.9,67.8,29.85,SSE,159,10.0,14.0,93,0.00,,---,0.00,0.00,VWS V14.01,2013-02-10 11:14:00,
2013-02-10 05:17:00,70.0,67.9,29.85,SE,142,5.0,14.0,93,0.00,,---,0.00,0.00,VWS V14.01,2013-02-10 11:17:00,
2013-02-10 05:18:00,70.0,67.9,29.85,ESE,107,1.0,14.0,93,0.00,,---,0.00,0.00,VWS V14.01,2013-02-10 11:18:00,
2013-02-10 05:19:00,70.0,67.9,29.85,SE,126,2.0,14.0,93,0.00,,---,0.00,0.00,VWS V14.01,2013-02-10 11:19:00,
2013-02-10 05:22:00,70.0,67.9,29.85,SE,128,6.0,14.0,93,0.00,,---,0.00,0.00,VWS V14.01,2013-02-10 11:22:00,
2013-02-10 05:24:00,70.0,67.9,29.85,SE,144,0.0,14.0,93,0.00,,---,0.00,0.00,VWS V14.01,2013-02-10 11:24:00,
2013-02-10 05:25:00,70.0,67.9,29.85,SE,136,6.0,14.0,93,0.00,,---,0.00,0.00,VWS V14.01,2013-02-10 11:25:00,
2013-02-10 05:28:00,70.1,68.0,29.84,South,176,4.0,14.0,93,0.00,,---,0.00,0.00,VWS V14.01,2013-02-10 11:28:00,
2013-02-10 05:29:00,70.1,68.0,29.84,SE,134,4.0,14.0,93,0.00,,---,0.00,0.00,VWS V14.01,2013-02-10 11:29:00,
2013-02-10 05:30:00,70.1,68.0,29.85,SE,146,8.0,8.0,93,0.00,,---,0.00,0.00,VWS V14.01,2013-02-10 11:30:00,
2013-02-10 05:34:00,70.1,68.0,29.85,ESE,109,7.0,12.0,93,0.00,,---,0.00,0.00,VWS V14.01,2013-02-10 11:34:00,
2013-02-10 05:35:00,70.1,68.0,29.85,SE,142,6.0,12.0,93,0.00,,---,0.00,0.00,VWS V14.01,2013-02-10 11:35:00,
2013-02-10 05:39:00,70.1,68.0,29.85,SE,145,3.0,12.0,93,0.00,,---,0.00,0.00,VWS V14.01,2013-02-10 11:39:00,
2013-02-10 05:41:00,70.2,68.1,29.84,SW,222,6.0,12.0,93,0.00,,---,0.00,0.00,VWS V14.01,2013-02-10 11:41:00,
2013-02-10 05:42:00,70.2,68.1,29.84,SE,145,6.0,12.0,93,0.00,,---,0.00,0.00,VWS V14.01,2013-02-10 11:42:00,
2013-02-10 05:44:00,70.2,68.1,29.84,SE,143,3.0,12.0,93,0.00,,---,0.00,0.00,VWS V14.01,2013-02-10 11:44:00,
2013-02-10 05:46:00,70.3,68.2,29.84,ESE,109,5.0,12.0,93,0.00,,---,0.00,0.00,VWS V14.01,2013-02-10 11:46:00,
2013-02-10 05:47:00,70.3,68.2,29.84,SE,140,3.0,12.0,93,0.00,,---,0.00,0.00,VWS V14.01,2013-02-10 11:47:00,
2013-02-10 05:48:00,70.3,68.2,29.84,SSE,158,6.0,12.0,93,0.00,,---,0.00,0.00,VWS V14.01,2013-02-10 11:48:00,
2013-02-10 06:00:00,70.4,68.0,29.84,SE,134,5.0,12.0,92,0.00,,---,0.00,0.00,VWS V14.01,2013-02-10 12:00:00,
2013-02-10 06:30:00,70.5,68.1,29.83,SSE,147,5.0,11.0,92,0.00,,---,0.00,0.00,VWS V14.01,2013-02-10 12:30:00,
2013-02-10 07:00:00,70.7,68.3,29.83,SE,136,3.0,10.0,92,0.00,,---,0.00,0.00,VWS V14.01,2013-02-10 13:00:00,
2013-02-10 07:30:00,71.0,68.2,29.85,SSW,196,1.0,12.0,91,0.00,,---,0.00,5.00,VWS V14.01,2013-02-10 13:30:00,
2013-02-10 07:33:00,71.0,68.2,29.85,SW,224,4.0,11.0,91,0.00,,---,0.00,7.00,VWS V14.01,2013-02-10 13:33:00,
2013-02-10 07:34:00,71.0,68.2,29.85,SSE,165,5.0,11.0,91,0.00,,---,0.00,7.00,VWS V14.01,2013-02-10 13:34:00,
2013-02-10 07:35:00,71.0,68.2,29.85,SSE,155,3.0,11.0,91,0.00,,---,0.00,7.00,VWS V14.01,2013-02-10 13:35:00,
2013-02-10 07:37:00,71.0,68.2,29.85,SSW,204,4.0,11.0,91,0.00,,---,0.00,7.00,VWS V14.01,2013-02-10 13:37:00,
2013-02-10 07:39:00,71.1,68.3,29.86,SSE,155,2.0,11.0,91,0.00,,---,0.00,7.00,VWS V14.01,2013-02-10 13:39:00,
2013-02-10 07:41:00,71.1,68.3,29.85,SSE,153,3.0,11.0,91,0.00,,---,0.00,5.00,VWS V14.01,2013-02-10 13:41:00,
2013-02-10 07:42:00,71.1,68.3,29.85,SE,140,1.0,11.0,91,0.00,,---,0.00,7.00,VWS V14.01,2013-02-10 13:42:00,
2013-02-10 07:45:00,71.1,68.3,29.85,SE,140,6.0,11.0,91,0.00,,---,0.00,9.00,VWS V14.01,2013-02-10 13:45:00,
2013-02-10 07:47:00,71.1,68.3,29.85,South,178,2.0,11.0,91,0.00,,---,0.00,11.00,VWS V14.01,2013-02-10 13:47:00,
2013-02-10 07:48:00,71.1,68.3,29.85,SSE,164,5.0,11.0,91,0.00,,---,0.00,12.00,VWS V14.01,2013-02-10 13:48:00,
2013-02-10 07:52:00,71.1,68.3,29.86,SW,214,0.0,11.0,91,0.00,,---,0.00,14.00,VWS V14.01,2013-02-10 13:52:00,
2013-02-10 07:53:00,71.1,68.3,29.86,SSW,211,2.0,11.0,91,0.00,,---,0.00,19.00,VWS V14.01,2013-02-10 13:53:00,
2013-02-10 07:54:00,71.1,68.3,29.86,SW,221,5.0,11.0,91,0.00,,---,0.00,25.00,VWS V14.01,2013-02-10 13:54:00,
2013-02-10 07:58:00,71.2,68.4,29.86,South,176,0.0,11.0,91,0.00,,---,0.00,26.00,VWS V14.01,2013-02-10 13:58:00,
2013-02-10 08:00:00,71.2,68.4,29.86,SE,125,3.0,11.0,91,0.00,,---,0.00,28.00,VWS V14.01,2013-02-10 14:00:00,
2013-02-10 08:01:00,71.2,68.4,29.86,SSW,202,5.0,7.0,91,0.00,,---,0.00,33.00,VWS V14.01,2013-02-10 14:01:00,
2013-02-10 08:03:00,71.2,68.4,29.86,SSE,161,0.0,7.0,91,0.00,,---,0.00,46.00,VWS V14.01,2013-02-10 14:03:00,
2013-02-10 08:04:00,71.2,68.4,29.86,SSE,161,1.0,7.0,91,0.00,,---,0.00,46.00,VWS V14.01,2013-02-10 14:04:00,
2013-02-10 08:06:00,71.2,68.4,29.86,SE,145,3.0,7.0,91,0.00,,---,0.00,53.00,VWS V14.01,2013-02-10 14:06:00,
2013-02-10 08:08:00,71.2,68.4,29.86,SSE,148,1.0,7.0,91,0.00,,---,0.00,74.00,VWS V14.01,2013-02-10 14:08:00,
2013-02-10 08:09:00,71.2,68.4,29.85,SSE,148,0.0,7.0,91,0.00,,---,0.00,65.00,VWS V14.01,2013-02-10 14:09:00,
2013-02-10 08:10:00,71.2,68.4,29.86,SSE,148,0.0,7.0,91,0.00,,---,0.00,65.00,VWS V14.01,2013-02-10 14:10:00,
2013-02-10 08:13:00,71.3,68.5,29.85,SSE,163,4.0,9.0,91,0.00,,---,0.00,47.00,VWS V14.01,2013-02-10 14:13:00,
2013-02-10 08:14:00,71.3,68.5,29.86,SE,146,3.0,9.0,91,0.00,,---,0.00,47.00,VWS V14.01,2013-02-10 14:14:00,
2013-02-10 08:19:00,71.3,68.5,29.85,SSW,192,2.0,9.0,91,0.00,,---,0.00,53.00,VWS V14.01,2013-02-10 14:19:00,
2013-02-10 08:20:00,71.3,68.5,29.85,SE,137,2.0,9.0,91,0.00,,---,0.00,44.00,VWS V14.01,2013-02-10 14:20:00,
2013-02-10 08:23:00,71.4,68.6,29.86,SE,139,6.0,9.0,91,0.00,,---,0.00,46.00,VWS V14.01,2013-02-10 14:23:00,
2013-02-10 08:25:00,71.4,68.6,29.86,SSW,192,3.0,9.0,91,0.00,,---,0.00,47.00,VWS V14.01,2013-02-10 14:25:00,
2013-02-10 08:26:00,71.5,68.7,29.86,SE,141,3.0,9.0,91,0.00,,---,0.00,56.00,VWS V14.01,2013-02-10 14:26:00,
2013-02-10 08:30:00,71.5,68.7,29.86,SE,126,4.0,9.0,91,0.00,,---,0.00,42.00,VWS V14.01,2013-02-10 14:30:00,
2013-02-10 08:31:00,71.5,68.7,29.86,SE,135,2.0,5.0,91,0.00,,---,0.00,42.00,VWS V14.01,2013-02-10 14:31:00,
2013-02-10 08:32:00,71.5,68.7,29.85,SSE,155,5.0,5.0,91,0.00,,---,0.00,65.00,VWS V14.01,2013-02-10 14:32:00,
2013-02-10 08:37:00,71.5,68.7,29.86,South,171,5.0,11.0,91,0.00,,---,0.00,39.00,VWS V14.01,2013-02-10 14:37:00,
2013-02-10 08:40:00,71.6,68.5,29.86,SSW,213,4.0,11.0,90,0.00,,---,0.00,23.00,VWS V14.01,2013-02-10 14:40:00,
2013-02-10 08:41:00,71.6,68.5,29.86,SE,142,4.0,11.0,90,0.00,,---,0.00,21.00,VWS V14.01,2013-02-10 14:41:00,
2013-02-10 08:42:00,71.6,68.5,29.86,SSE,152,1.0,11.0,90,0.00,,---,0.00,18.00,VWS V14.01,2013-02-10 14:42:00,
2013-02-10 08:45:00,71.6,68.5,29.86,SSW,200,3.0,11.0,90,0.00,,---,0.00,18.00,VWS V14.01,2013-02-10 14:45:00,
2013-02-10 08:47:00,71.6,68.5,29.86,SW,234,1.0,11.0,90,0.00,,---,0.00,16.00,VWS V14.01,2013-02-10 14:47:00,
2013-02-10 08:50:00,71.6,68.5,29.86,SE,126,6.0,11.0,90,0.00,,---,0.00,11.00,VWS V14.01,2013-02-10 14:50:00,
2013-02-10 08:53:00,71.6,68.5,29.86,SE,136,6.0,11.0,90,0.00,,---,0.00,12.00,VWS V14.01,2013-02-10 14:53:00,
2013-02-10 08:55:00,71.6,68.5,29.86,SSE,147,4.0,11.0,90,0.00,,---,0.00,12.00,VWS V14.01,2013-02-10 14:55:00,
2013-02-10 08:58:00,71.5,68.4,29.86,ESE,116,2.0,11.0,90,0.00,,---,0.00,18.00,VWS V14.01,2013-02-10 14:58:00,
2013-02-10 09:00:00,71.6,68.5,29.86,SSE,147,4.0,5.0,90,0.00,,---,0.00,18.00,VWS V14.01,2013-02-10 15:00:00,
2013-02-10 09:02:00,71.6,68.5,29.86,SSE,150,1.0,5.0,90,0.00,,---,0.00,21.00,VWS V14.01,2013-02-10 15:02:00,
2013-02-10 09:04:00,71.6,68.5,29.86,SSW,192,5.0,8.0,90,0.00,,---,0.00,19.00,VWS V14.01,2013-02-10 15:04:00,
2013-02-10 09:05:00,71.6,68.5,29.86,South,170,9.0,14.0,90,0.00,,---,0.00,23.00,VWS V14.01,2013-02-10 15:05:00,
2013-02-10 09:06:00,71.6,68.5,29.86,South,182,7.0,14.0,90,0.00,,---,0.00,19.00,VWS V14.01,2013-02-10 15:06:00,
2013-02-10 09:08:00,71.6,68.5,29.86,SSW,194,4.0,14.0,90,0.00,,---,0.00,23.00,VWS V14.01,2013-02-10 15:08:00,
2013-02-10 09:11:00,71.7,68.6,29.85,SSE,150,4.0,15.0,90,0.00,,---,0.00,26.00,VWS V14.01,2013-02-10 15:11:00,
2013-02-10 09:12:00,71.7,68.6,29.86,SSE,162,7.0,15.0,90,0.00,,---,0.00,32.00,VWS V14.01,2013-02-10 15:12:00,
2013-02-10 09:14:00,71.7,68.9,29.85,East,94,6.0,15.0,91,0.00,,---,0.00,32.00,VWS V14.01,2013-02-10 15:14:00,
2013-02-10 09:17:00,71.6,68.8,29.85,SSW,198,4.0,15.0,91,0.00,,---,0.00,28.00,VWS V14.01,2013-02-10 15:17:00,
2013-02-10 09:19:00,71.6,68.8,29.86,South,174,3.0,15.0,91,0.00,,---,0.00,25.00,VWS V14.01,2013-02-10 15:19:00,
2013-02-10 09:20:00,71.6,68.8,29.85,SE,138,5.0,15.0,91,0.00,,---,0.00,26.00,VWS V14.01,2013-02-10 15:20:00,
2013-02-10 09:22:00,71.5,68.7,29.86,SE,135,6.0,15.0,91,0.00,,---,0.00,16.00,VWS V14.01,2013-02-10 15:22:00,
2013-02-10 09:26:00,71.4,69.0,29.85,SSE,150,6.0,15.0,92,0.00,,---,0.00,30.00,VWS V14.01,2013-02-10 15:26:00,
2013-02-10 09:29:00,71.2,68.8,29.85,SSE,165,9.0,15.0,92,0.00,,---,0.00,30.00,VWS V14.01,2013-02-10 15:29:00,
2013-02-10 09:30:00,71.2,68.8,29.85,SSE,165,9.0,15.0,92,0.00,,---,0.00,30.00,VWS V14.01,2013-02-10 15:30:00,
2013-02-10 09:31:00,71.1,68.7,29.85,SSE,161,4.0,9.0,92,0.00,,---,0.00,37.00,VWS V14.01,2013-02-10 15:31:00,
2013-02-10 09:34:00,71.1,69.0,29.85,SSE,152,5.0,14.0,93,0.00,,---,0.00,54.00,VWS V14.01,2013-02-10 15:34:00,
2013-02-10 09:36:00,71.0,68.9,29.85,SSE,153,5.0,14.0,93,0.00,,---,0.00,54.00,VWS V14.01,2013-02-10 15:36:00,
2013-02-10 09:39:00,71.0,68.9,29.85,SSE,162,4.0,14.0,93,0.00,,---,0.00,47.00,VWS V14.01,2013-02-10 15:39:00,
2013-02-10 09:40:00,71.0,68.9,29.85,SSW,209,7.0,14.0,93,0.00,,---,0.00,47.00,VWS V14.01,2013-02-10 15:40:00,
2013-02-10 09:41:00,71.0,69.2,29.86,SSE,156,3.0,14.0,94,0.00,,---,0.00,46.00,VWS V14.01,2013-02-10 15:41:00,
2013-02-10 09:45:00,70.9,69.1,29.86,SSW,194,5.0,14.0,94,0.00,,---,0.00,47.00,VWS V14.01,2013-02-10 15:45:00,
2013-02-10 09:47:00,71.0,69.2,29.86,SE,138,7.0,14.0,94,0.00,,---,0.00,56.00,VWS V14.01,2013-02-10 15:47:00,
2013-02-10 09:50:00,70.9,69.1,29.86,SSE,159,8.0,14.0,94,0.00,,---,0.00,53.00,VWS V14.01,2013-02-10 15:50:00,
2013-02-10 09:52:00,70.9,69.1,29.86,SE,140,7.0,14.0,94,0.00,,---,0.00,26.00,VWS V14.01,2013-02-10 15:52:00,
2013-02-10 09:53:00,70.9,69.1,29.86,South,170,3.0,14.0,94,0.00,,---,0.00,30.00,VWS V14.01,2013-02-10 15:53:00,
2013-02-10 09:57:00,70.9,69.1,29.86,SSW,194,3.0,14.0,94,0.00,,---,0.00,16.00,VWS V14.01,2013-02-10 15:57:00,
2013-02-10 09:59:00,70.9,69.1,29.86,SE,138,4.0,14.0,94,0.00,,---,0.00,11.00,VWS V14.01,2013-02-10 15:59:00,
2013-02-10 10:00:00,70.9,69.1,29.87,South,172,8.0,9.0,94,0.00,,---,0.00,11.00,VWS V14.01,2013-02-10 16:00:00,
2013-02-10 10:04:00,70.9,69.1,29.87,SE,136,3.0,11.0,94,0.00,,---,0.00,23.00,VWS V14.01,2013-02-10 16:04:00,
2013-02-10 10:05:00,70.9,69.1,29.87,SE,124,3.0,11.0,94,0.00,,---,0.00,23.00,VWS V14.01,2013-02-10 16:05:00,
2013-02-10 10:08:00,70.9,69.1,29.87,SSE,165,4.0,11.0,94,0.00,,---,0.00,28.00,VWS V14.01,2013-02-10 16:08:00,
2013-02-10 10:10:00,70.9,69.1,29.87,SE,143,4.0,11.0,94,0.00,,---,0.00,28.00,VWS V14.01,2013-02-10 16:10:00,
2013-02-10 10:11:00,70.9,69.1,29.87,SSE,167,2.0,11.0,94,0.00,,---,0.00,23.00,VWS V14.01,2013-02-10 16:11:00,
2013-02-10 10:13:00,70.9,69.1,29.86,SSW,193,5.0,11.0,94,0.00,,---,0.00,35.00,VWS V14.01,2013-02-10 16:13:00,
2013-02-10 10:14:00,70.9,69.1,29.86,SE,137,7.0,11.0,94,0.00,,---,0.00,35.00,VWS V14.01,2013-02-10 16:14:00,
2013-02-10 10:16:00,70.9,69.1,29.86,SW,225,9.0,11.0,94,0.00,,---,0.00,30.00,VWS V14.01,2013-02-10 16:16:00,
2013-02-10 10:18:00,70.9,69.1,29.86,SSE,168,2.0,11.0,94,0.00,,---,0.00,21.00,VWS V14.01,2013-02-10 16:18:00,
2013-02-10 10:19:00,70.9,69.1,29.86,SSE,157,5.0,11.0,94,0.00,,---,0.00,21.00,VWS V14.01,2013-02-10 16:19:00,
2013-02-10 10:23:00,70.9,69.1,29.86,SE,139,6.0,11.0,94,0.00,,---,0.00,16.00,VWS V14.01,2013-02-10 16:23:00,
2013-02-10 10:24:00,70.9,69.1,29.86,SSE,161,1.0,11.0,94,0.00,,---,0.00,14.00,VWS V14.01,2013-02-10 16:24:00,
2013-02-10 10:25:00,70.9,69.1,29.86,SW,224,2.0,11.0,94,0.00,,---,0.00,9.00,VWS V14.01,2013-02-10 16:25:00,
2013-02-10 10:30:00,70.4,68.3,29.90,SW,221,13.0,15.0,93,0.00,,---,0.00,0.00,VWS V14.01,2013-02-10 16:30:00,
2013-02-10 10:33:00,67.9,64.9,29.91,WNW,290,6.0,14.0,90,0.09,,---,0.09,0.00,VWS V14.01,2013-02-10 16:33:00,
2013-02-10 10:38:00,65.4,62.4,29.91,WNW,300,4.0,14.0,90,0.14,,---,0.14,0.00,VWS V14.01,2013-02-10 16:38:00,
2013-02-10 10:39:00,65.3,62.3,29.91,WNW,296,3.0,14.0,90,0.16,,---,0.16,0.00,VWS V14.01,2013-02-10 16:39:00,
2013-02-10 10:40:00,65.0,62.3,29.91,WNW,287,4.0,14.0,91,0.17,,---,0.17,7.00,VWS V14.01,2013-02-10 16:40:00,
2013-02-10 10:44:00,64.0,61.3,29.91,NW,309,4.0,14.0,91,0.17,,---,0.17,9.00,VWS V14.01,2013-02-10 16:44:00,
2013-02-10 10:45:00,63.8,61.1,29.91,WNW,286,6.0,14.0,91,0.18,,---,0.18,11.00,VWS V14.01,2013-02-10 16:45:00,
2013-02-10 10:48:00,63.2,60.8,29.91,East,86,3.0,14.0,92,0.18,,---,0.18,11.00,VWS V14.01,2013-02-10 16:48:00,
2013-02-10 10:50:00,62.9,60.5,29.92,SSE,163,0.0,14.0,92,0.21,,---,0.21,11.00,VWS V14.01,2013-02-10 16:50:00,
2013-02-10 10:58:00,61.5,59.5,29.92,NW,306,4.0,14.0,93,0.32,,---,0.32,11.00,VWS V14.01,2013-02-10 16:58:00,
2013-02-10 10:59:00,61.2,58.9,29.92,North,355,3.0,14.0,92,0.35,,---,0.35,9.00,VWS V14.01,2013-02-10 16:59:00,
2013-02-10 11:00:00,61.1,59.1,29.92,WNW,290,1.0,6.0,93,0.36,,---,0.36,14.00,VWS V14.01,2013-02-10 17:00:00,
2013-02-10 11:04:00,60.6,58.6,29.92,WNW,294,0.0,6.0,93,0.36,,---,0.36,14.00,VWS V14.01,2013-02-10 17:04:00,
2013-02-10 11:05:00,60.5,58.5,29.92,NW,326,1.0,6.0,93,0.37,,---,0.37,11.00,VWS V14.01,2013-02-10 17:05:00,
2013-02-10 11:08:00,60.3,58.3,29.93,NW,319,6.0,6.0,93,0.38,,---,0.38,9.00,VWS V14.01,2013-02-10 17:08:00,
2013-02-10 11:09:00,60.2,58.2,29.93,West,259,2.0,6.0,93,0.38,,---,0.38,9.00,VWS V14.01,2013-02-10 17:09:00,
2013-02-10 11:10:00,60.1,58.4,29.93,West,259,2.0,6.0,94,0.38,,---,0.38,9.00,VWS V14.01,2013-02-10 17:10:00,
2013-02-10 11:11:00,60.0,58.3,29.94,South,191,5.0,8.0,94,0.39,,---,0.39,9.00,VWS V14.01,2013-02-10 17:11:00,
2013-02-10 11:16:00,59.8,58.1,29.95,WNW,294,2.0,8.0,94,0.39,,---,0.39,5.00,VWS V14.01,2013-02-10 17:16:00,
2013-02-10 11:18:00,59.6,57.9,29.94,NNW,341,3.0,8.0,94,0.39,,---,0.39,7.00,VWS V14.01,2013-02-10 17:18:00,
2013-02-10 11:21:00,59.3,57.6,29.94,West,267,2.0,8.0,94,0.43,,---,0.43,14.00,VWS V14.01,2013-02-10 17:21:00,
2013-02-10 11:22:00,59.3,57.6,29.94,WNW,293,5.0,8.0,94,0.45,,---,0.45,14.00,VWS V14.01,2013-02-10 17:22:00,
2013-02-10 11:25:00,59.0,57.3,29.95,WNW,288,2.0,8.0,94,0.54,,---,0.54,11.00,VWS V14.01,2013-02-10 17:25:00,
2013-02-10 11:30:00,58.9,57.5,29.93,North,360,0.0,2.0,95,0.59,,---,0.59,69.00,VWS V14.01,2013-02-10 17:30:00,
2013-02-10 11:31:00,58.9,57.5,29.92,NW,319,3.0,5.0,95,0.60,,---,0.60,84.00,VWS V14.01,2013-02-10 17:31:00,
2013-02-10 11:32:00,58.9,57.5,29.92,WNW,295,5.0,5.0,95,0.60,,---,0.60,105.00,VWS V14.01,2013-02-10 17:32:00,
2013-02-10 11:34:00,58.7,57.3,29.92,WSW,242,1.0,5.0,95,0.60,,---,0.60,230.00,VWS V14.01,2013-02-10 17:34:00,
2013-02-10 11:36:00,58.8,57.4,29.92,NW,306,1.0,5.0,95,0.60,,---,0.60,301.00,VWS V14.01,2013-02-10 17:36:00,
2013-02-10 11:37:00,58.8,57.4,29.92,NW,306,0.0,5.0,95,0.60,,---,0.60,301.00,VWS V14.01,2013-02-10 17:37:00,
2013-02-10 11:39:00,59.1,58.0,29.93,West,276,2.0,5.0,96,0.60,,---,0.60,301.00,VWS V14.01,2013-02-10 17:39:00,
2013-02-10 11:41:00,59.6,58.8,29.93,WSW,257,5.0,5.0,97,0.60,,---,0.60,424.00,VWS V14.01,2013-02-10 17:41:00,
2013-02-10 11:42:00,59.7,58.6,29.92,West,274,1.0,5.0,96,0.60,,---,0.60,424.00,VWS V14.01,2013-02-10 17:42:00,
2013-02-10 11:43:00,59.9,58.8,29.92,West,281,6.0,8.0,96,0.60,,---,0.60,424.00,VWS V14.01,2013-02-10 17:43:00,
2013-02-10 11:45:00,59.8,58.7,29.92,West,278,1.0,8.0,96,0.60,,---,0.60,424.00,VWS V14.01,2013-02-10 17:45:00,
2013-02-10 11:47:00,60.0,58.9,29.92,North,355,2.0,8.0,96,0.60,,---,0.60,582.00,VWS V14.01,2013-02-10 17:47:00,
2013-02-10 11:48:00,60.2,59.1,29.92,North,355,2.0,8.0,96,0.60,,---,0.60,582.00,VWS V14.01,2013-02-10 17:48:00,
2013-02-10 11:49:00,60.4,59.3,29.92,North,355,0.0,8.0,96,0.60,,---,0.60,294.00,VWS V14.01,2013-02-10 17:49:00,
2013-02-10 11:52:00,60.5,59.4,29.92,WNW,294,3.0,8.0,96,0.60,,---,0.60,288.00,VWS V14.01,2013-02-10 17:52:00,
2013-02-10 11:53:00,60.3,59.2,29.92,WNW,294,0.0,8.0,96,0.60,,---,0.60,309.00,VWS V14.01,2013-02-10 17:53:00,
2013-02-10 11:54:00,60.4,59.3,29.92,SW,214,5.0,8.0,96,0.60,,---,0.60,304.00,VWS V14.01,2013-02-10 17:54:00,
2013-02-10 11:55:00,60.4,59.3,29.92,West,271,1.0,8.0,96,0.60,,---,0.60,304.00,VWS V14.01,2013-02-10 17:55:00,
2013-02-10 11:58:00,60.8,59.7,29.92,NNW,329,0.0,8.0,96,0.60,,---,0.60,411.00,VWS V14.01,2013-02-10 17:58:00,
2013-02-10 11:59:00,60.8,59.7,29.92,NNW,329,0.0,8.0,96,0.60,,---,0.60,411.00,VWS V14.01,2013-02-10 17:59:00,
2013-02-10 12:00:00,61.0,59.8,29.92,North,5,1.0,8.0,96,0.60,,---,0.60,404.00,VWS V14.01,2013-02-10 18:00:00,
2013-02-10 12:04:00,61.4,60.2,29.92,NW,323,3.0,7.0,96,0.25,,---,0.60,153.00,VWS V14.01,2013-02-10 18:04:00,
2013-02-10 12:05:00,61.3,59.9,29.92,NNE,30,0.0,7.0,95,0.25,,---,0.60,93.00,VWS V14.01,2013-02-10 18:05:00,
2013-02-10 12:09:00,60.7,59.3,29.93,NNW,329,0.0,7.0,95,0.25,,---,0.60,62.00,VWS V14.01,2013-02-10 18:09:00,
2013-02-10 12:10:00,60.6,59.2,29.93,NNW,329,0.0,7.0,95,0.25,,---,0.60,72.00,VWS V14.01,2013-02-10 18:10:00,
2013-02-10 12:11:00,60.5,59.1,29.93,NW,306,2.0,7.0,95,0.25,,---,0.60,93.00,VWS V14.01,2013-02-10 18:11:00,
2013-02-10 12:12:00,60.3,58.9,29.93,WNW,286,2.0,7.0,95,0.25,,---,0.60,114.00,VWS V14.01,2013-02-10 18:12:00,
2013-02-10 12:15:00,60.0,58.6,29.93,NW,310,2.0,7.0,95,0.25,,---,0.60,79.00,VWS V14.01,2013-02-10 18:15:00,
2013-02-10 12:16:00,60.0,58.6,29.93,NNW,344,4.0,7.0,95,0.25,,---,0.60,77.00,VWS V14.01,2013-02-10 18:16:00,
2013-02-10 12:17:00,60.0,58.6,29.93,NNW,330,2.0,7.0,95,0.25,,---,0.60,132.00,VWS V14.01,2013-02-10 18:17:00,
2013-02-10 12:21:00,60.2,58.8,29.93,NNW,330,1.0,7.0,95,0.25,,---,0.60,200.00,VWS V14.01,2013-02-10 18:21:00,
2013-02-10 12:22:00,60.4,59.0,29.93,NNW,330,1.0,7.0,95,0.25,,---,0.60,200.00,VWS V14.01,2013-02-10 18:22:00,
2013-02-10 12:24:00,60.4,59.0,29.93,West,263,3.0,7.0,95,0.25,,---,0.60,243.00,VWS V14.01,2013-02-10 18:24:00,
2013-02-10 12:26:00,61.1,60.0,29.92,NNW,346,3.0,7.0,96,0.25,,---,0.60,218.00,VWS V14.01,2013-02-10 18:26:00,
2013-02-10 12:29:00,61.2,59.8,29.92,NW,325,2.0,7.0,95,0.25,,---,0.60,181.00,VWS V14.01,2013-02-10 18:29:00,
2013-02-10 12:30:00,61.2,59.8,29.92,NW,325,0.0,7.0,95,0.25,,---,0.60,181.00,VWS V14.01,2013-02-10 18:30:00,
2013-02-10 12:31:00,61.4,60.0,29.92,SSE,161,4.0,4.0,95,0.01,,---,0.60,169.00,VWS V14.01,2013-02-10 18:31:00,
2013-02-10 12:34:00,60.9,59.2,29.92,SSW,200,2.0,5.0,94,0.01,,---,0.60,144.00,VWS V14.01,2013-02-10 18:34:00,
2013-02-10 12:35:00,60.9,59.2,29.92,SSW,200,1.0,5.0,94,0.01,,---,0.60,144.00,VWS V14.01,2013-02-10 18:35:00,
2013-02-10 12:38:00,61.0,59.6,29.91,NNW,329,4.0,5.0,95,0.01,,---,0.60,77.00,VWS V14.01,2013-02-10 18:38:00,
2013-02-10 12:40:00,60.8,59.1,29.91,NNW,336,1.0,5.0,94,0.01,,---,0.60,88.00,VWS V14.01,2013-02-10 18:40:00,
2013-02-10 12:42:00,60.7,59.0,29.91,South,178,3.0,5.0,94,0.01,,---,0.60,79.00,VWS V14.01,2013-02-10 18:42:00,
2013-02-10 12:43:00,60.7,59.0,29.91,South,177,0.0,5.0,94,0.01,,---,0.60,65.00,VWS V14.01,2013-02-10 18:43:00,
2013-02-10 12:46:00,60.7,59.0,29.91,WSW,244,1.0,5.0,94,0.01,,---,0.60,167.00,VWS V14.01,2013-02-10 18:46:00,
2013-02-10 12:47:00,60.7,59.0,29.91,NW,321,1.0,5.0,94,0.01,,---,0.60,162.00,VWS V14.01,2013-02-10 18:47:00,
2013-02-10 12:48:00,60.6,58.9,29.91,NNW,334,2.0,5.0,94,0.01,,---,0.60,172.00,VWS V14.01,2013-02-10 18:48:00,
2013-02-10 12:52:00,61.1,59.1,29.89,WSW,251,3.0,6.0,93,0.01,,---,0.60,206.00,VWS V14.01,2013-02-10 18:52:00,
2013-02-10 12:53:00,61.0,59.0,29.90,WSW,251,1.0,6.0,93,0.01,,---,0.60,220.00,VWS V14.01,2013-02-10 18:53:00,
2013-02-10 12:54:00,61.1,59.4,29.90,WSW,246,0.0,6.0,94,0.01,,---,0.60,230.00,VWS V14.01,2013-02-10 18:54:00,
2013-02-10 12:58:00,61.4,59.4,29.90,WSW,246,1.0,6.0,93,0.01,,---,0.60,151.00,VWS V14.01,2013-02-10 18:58:00,
2013-02-10 12:59:00,61.3,59.0,29.90,WSW,246,0.0,6.0,92,0.01,,---,0.60,132.00,VWS V14.01,2013-02-10 18:59:00,
2013-02-10 13:00:00,61.3,59.3,29.90,WNW,301,1.0,6.0,93,0.01,,---,0.60,109.00,VWS V14.01,2013-02-10 19:00:00,
2013-02-10 13:03:00,61.3,59.0,29.89,North,351,0.0,4.0,92,0.00,,---,0.60,142.00,VWS V14.01,2013-02-10 19:03:00,
2013-02-10 13:04:00,61.4,59.4,29.89,North,351,0.0,4.0,93,0.00,,---,0.60,102.00,VWS V14.01,2013-02-10 19:04:00,
2013-02-10 13:05:00,61.3,59.0,29.91,WNW,297,1.0,4.0,92,0.00,,---,0.60,97.00,VWS V14.01,2013-02-10 19:05:00,
2013-02-10 13:06:00,61.3,59.3,29.91,WNW,298,2.0,4.0,93,0.00,,---,0.60,97.00,VWS V14.01,2013-02-10 19:06:00,
2013-02-10 13:09:00,60.9,58.6,29.90,WNW,298,0.0,4.0,92,0.00,,---,0.60,125.00,VWS V14.01,2013-02-10 19:09:00,
2013-02-10 13:11:00,60.9,58.6,29.90,WNW,298,0.0,4.0,92,0.00,,---,0.60,77.00,VWS V14.01,2013-02-10 19:11:00,
2013-02-10 13:13:00,61.1,58.5,29.89,NNW,342,1.0,4.0,91,0.00,,---,0.60,128.00,VWS V14.01,2013-02-10 19:13:00,
2013-02-10 13:14:00,61.3,58.7,29.89,NNW,342,0.0,4.0,91,0.00,,---,0.60,146.00,VWS V14.01,2013-02-10 19:14:00,
2013-02-10 13:15:00,61.5,58.5,29.89,NNW,342,0.0,4.0,90,0.00,,---,0.60,146.00,VWS V14.01,2013-02-10 19:15:00,
2013-02-10 13:17:00,61.8,58.8,29.89,NNW,342,1.0,4.0,90,0.00,,---,0.60,135.00,VWS V14.01,2013-02-10 19:17:00,
2013-02-10 13:18:00,61.8,58.8,29.89,NNW,342,0.0,4.0,90,0.00,,---,0.60,134.00,VWS V14.01,2013-02-10 19:18:00,
2013-02-10 13:20:00,62.0,58.4,29.89,NNW,342,0.0,4.0,88,0.00,,---,0.60,137.00,VWS V14.01,2013-02-10 19:20:00,
2013-02-10 13:21:00,62.4,59.1,29.90,NNW,342,0.0,4.0,89,0.00,,---,0.60,134.00,VWS V14.01,2013-02-10 19:21:00,
2013-02-10 13:24:00,62.5,58.6,29.90,NNW,342,0.0,4.0,87,0.00,,---,0.60,130.00,VWS V14.01,2013-02-10 19:24:00,
2013-02-10 13:25:00,62.6,58.7,29.90,NNW,342,0.0,4.0,87,0.00,,---,0.60,130.00,VWS V14.01,2013-02-10 19:25:00,
2013-02-10 13:26:00,62.8,59.5,29.90,NNW,342,2.0,4.0,89,0.00,,---,0.60,116.00,VWS V14.01,2013-02-10 19:26:00,
2013-02-10 13:29:00,62.2,58.6,29.90,SW,217,1.0,4.0,88,0.00,,---,0.60,130.00,VWS V14.01,2013-02-10 19:29:00,
2013-02-10 13:30:00,62.1,58.5,29.91,SW,217,0.0,1.0,88,0.00,,---,0.60,111.00,VWS V14.01,2013-02-10 19:30:00,
2013-02-10 13:32:00,62.1,59.1,29.90,North,5,2.0,5.0,90,0.00,,---,0.60,90.00,VWS V14.01,2013-02-10 19:32:00,
2013-02-10 13:35:00,62.1,58.5,29.90,NW,323,2.0,5.0,88,0.00,,---,0.60,79.00,VWS V14.01,2013-02-10 19:35:00,
2013-02-10 13:36:00,62.1,58.5,29.90,NW,319,2.0,5.0,88,0.00,,---,0.60,77.00,VWS V14.01,2013-02-10 19:36:00,
2013-02-10 13:38:00,61.9,58.3,29.90,West,265,0.0,5.0,88,0.00,,---,0.60,81.00,VWS V14.01,2013-02-10 19:38:00,
2013-02-10 13:40:00,62.1,58.8,29.89,West,265,0.0,5.0,89,0.00,,---,0.60,88.00,VWS V14.01,2013-02-10 19:40:00,
2013-02-10 13:42:00,62.4,59.4,29.89,North,355,2.0,5.0,90,0.00,,---,0.60,91.00,VWS V14.01,2013-02-10 19:42:00,
2013-02-10 13:43:00,62.4,59.1,29.89,North,355,1.0,5.0,89,0.00,,---,0.60,88.00,VWS V14.01,2013-02-10 19:43:00,
2013-02-10 13:45:00,62.6,59.3,29.88,North,355,0.0,5.0,89,0.00,,---,0.60,93.00,VWS V14.01,2013-02-10 19:45:00,
2013-02-10 13:46:00,62.7,59.1,29.88,North,355,0.0,5.0,88,0.00,,---,0.60,98.00,VWS V14.01,2013-02-10 19:46:00,
2013-02-10 13:49:00,62.5,58.6,29.89,North,355,0.0,5.0,87,0.00,,---,0.60,95.00,VWS V14.01,2013-02-10 19:49:00,
2013-02-10 13:51:00,62.3,58.7,29.89,North,355,0.0,5.0,88,0.00,,---,0.60,91.00,VWS V14.01,2013-02-10 19:51:00,
2013-02-10 13:54:00,62.2,58.6,29.90,West,274,2.0,5.0,88,0.00,,---,0.60,95.00,VWS V14.01,2013-02-10 19:54:00,
2013-02-10 13:55:00,62.2,58.6,29.90,West,274,0.0,5.0,88,0.00,,---,0.60,91.00,VWS V14.01,2013-02-10 19:55:00,
2013-02-10 13:56:00,62.3,59.0,29.90,West,274,2.0,5.0,89,0.00,,---,0.60,90.00,VWS V14.01,2013-02-10 19:56:00,
2013-02-10 13:57:00,62.2,58.6,29.90,West,262,1.0,5.0,88,0.00,,---,0.60,88.00,VWS V14.01,2013-02-10 19:57:00,
2013-02-10 13:59:00,62.1,58.5,29.91,West,262,0.0,0.0,88,0.00,,---,0.60,81.00,VWS V14.01,2013-02-10 19:59:00,
2013-02-10 14:00:00,62.1,58.5,29.91,West,262,0.0,5.0,88,0.00,,---,0.60,81.00,VWS V14.01,2013-02-10 20:00:00,
2013-02-10 14:02:00,62.1,58.5,29.91,West,262,1.0,3.0,88,0.00,,---,0.60,44.00,VWS V14.01,2013-02-10 20:02:00,
2013-02-10 14:04:00,62.0,58.1,29.92,WSW,244,2.0,3.0,87,0.00,,---,0.60,44.00,VWS V14.01,2013-02-10 20:04:00,
2013-02-10 14:05:00,62.0,58.1,29.92,WSW,244,0.0,3.0,87,0.00,,---,0.60,49.00,VWS V14.01,2013-02-10 20:05:00,
2013-02-10 14:09:00,62.0,58.1,29.92,WSW,244,0.0,3.0,87,0.00,,---,0.60,67.00,VWS V14.01,2013-02-10 20:09:00,
2013-02-10 14:10:00,62.1,58.2,29.91,WSW,244,1.0,3.0,87,0.00,,---,0.60,97.00,VWS V14.01,2013-02-10 20:10:00,
2013-02-10 14:14:00,62.4,58.8,29.91,WSW,244,0.0,3.0,88,0.00,,---,0.60,84.00,VWS V14.01,2013-02-10 20:14:00,
2013-02-10 14:15:00,62.5,58.6,29.91,WSW,244,1.0,3.0,87,0.00,,---,0.60,76.00,VWS V14.01,2013-02-10 20:15:00,
2013-02-10 14:19:00,62.2,58.3,29.91,WSW,244,0.0,3.0,87,0.00,,---,0.60,56.00,VWS V14.01,2013-02-10 20:19:00,
2013-02-10 14:20:00,62.2,58.3,29.90,WSW,244,0.0,3.0,87,0.00,,---,0.60,72.00,VWS V14.01,2013-02-10 20:20:00,
2013-02-10 14:25:00,62.5,59.2,29.90,WNW,292,0.0,3.0,89,0.00,,---,0.60,102.00,VWS V14.01,2013-02-10 20:25:00,
2013-02-10 14:29:00,62.5,58.9,29.90,WNW,292,0.0,3.0,88,0.00,,---,0.60,88.00,VWS V14.01,2013-02-10 20:29:00,
2013-02-10 14:30:00,62.5,58.9,29.90,WNW,292,0.0,0.0,88,0.00,,---,0.60,88.00,VWS V14.01,2013-02-10 20:30:00,
2013-02-10 14:31:00,62.5,58.9,29.90,WNW,292,0.0,0.0,88,0.00,,---,0.60,88.00,VWS V14.01,2013-02-10 20:31:00,
2013-02-10 14:34:00,62.6,59.3,29.89,WNW,292,0.0,1.0,89,0.00,,---,0.60,134.00,VWS V14.01,2013-02-10 20:34:00,
2013-02-10 14:37:00,62.9,59.0,29.89,WNW,292,0.0,1.0,87,0.00,,---,0.60,134.00,VWS V14.01,2013-02-10 20:37:00,
2013-02-10 14:38:00,62.8,58.9,29.89,WNW,292,0.0,1.0,87,0.00,,---,0.60,121.00,VWS V14.01,2013-02-10 20:38:00,
2013-02-10 14:40:00,62.9,59.3,29.88,WNW,292,0.0,1.0,88,0.00,,---,0.60,151.00,VWS V14.01,2013-02-10 20:40:00,
2013-02-10 14:44:00,63.4,59.5,29.88,WNW,292,0.0,2.0,87,0.00,,---,0.60,139.00,VWS V14.01,2013-02-10 20:44:00,
2013-02-10 14:46:00,63.7,59.4,29.88,WNW,292,0.0,2.0,86,0.00,,---,0.60,135.00,VWS V14.01,2013-02-10 20:46:00,
2013-02-10 14:49:00,63.7,59.4,29.88,WNW,292,0.0,2.0,86,0.00,,---,0.60,111.00,VWS V14.01,2013-02-10 20:49:00,
2013-02-10 14:51:00,63.4,59.2,29.89,WNW,292,0.0,2.0,86,0.00,,---,0.60,86.00,VWS V14.01,2013-02-10 20:51:00,
2013-02-10 14:52:00,63.3,59.0,29.89,WNW,292,0.0,2.0,86,0.00,,---,0.60,76.00,VWS V14.01,2013-02-10 20:52:00,
2013-02-10 14:55:00,63.1,59.2,29.88,WNW,292,0.0,2.0,87,0.00,,---,0.60,81.00,VWS V14.01,2013-02-10 20:55:00,
2013-02-10 14:57:00,63.1,59.2,29.88,WNW,292,0.0,2.0,87,0.00,,---,0.60,90.00,VWS V14.01,2013-02-10 20:57:00,
2013-02-10 15:00:00,63.3,59.4,29.88,WNW,292,0.0,0.0,87,0.00,,---,0.60,125.00,VWS V14.01,2013-02-10 21:00:00,
2013-02-10 15:01:00,63.4,59.5,29.88,WNW,292,0.0,1.0,87,0.00,,---,0.60,125.00,VWS V14.01,2013-02-10 21:01:00,
2013-02-10 15:03:00,63.5,59.6,29.89,WNW,292,0.0,1.0,87,0.00,,---,0.60,74.00,VWS V14.01,2013-02-10 21:03:00,
2013-02-10 15:05:00,63.5,59.9,29.89,WNW,292,0.0,1.0,88,0.00,,---,0.60,81.00,VWS V14.01,2013-02-10 21:05:00,
2013-02-10 15:06:00,63.4,59.5,29.88,WNW,292,2.0,2.0,87,0.00,,---,0.60,116.00,VWS V14.01,2013-02-10 21:06:00,
2013-02-10 15:08:00,63.2,59.3,29.88,WNW,292,1.0,2.0,87,0.00,,---,0.60,134.00,VWS V14.01,2013-02-10 21:08:00,
2013-02-10 15:09:00,63.1,59.2,29.88,WNW,292,1.0,2.0,87,0.00,,---,0.60,132.00,VWS V14.01,2013-02-10 21:09:00,
2013-02-10 15:13:00,63.3,59.7,29.89,WNW,292,2.0,2.0,88,0.00,,---,0.60,93.00,VWS V14.01,2013-02-10 21:13:00,
2013-02-10 15:14:00,63.3,59.7,29.89,WNW,292,1.0,2.0,88,0.00,,---,0.60,84.00,VWS V14.01,2013-02-10 21:14:00,
2013-02-10 15:19:00,63.3,59.7,29.90,WNW,292,2.0,2.0,88,0.00,,---,0.60,84.00,VWS V14.01,2013-02-10 21:19:00,
2013-02-10 15:20:00,63.3,59.7,29.90,WNW,292,0.0,2.0,88,0.00,,---,0.60,84.00,VWS V14.01,2013-02-10 21:20:00,
2013-02-10 15:21:00,63.3,60.0,29.90,WNW,292,0.0,2.0,89,0.00,,---,0.60,79.00,VWS V14.01,2013-02-10 21:21:00,
2013-02-10 15:24:00,63.3,60.0,29.89,WNW,302,1.0,3.0,89,0.00,,---,0.60,111.00,VWS V14.01,2013-02-10 21:24:00,
2013-02-10 15:25:00,63.4,60.1,29.89,WNW,302,0.0,3.0,89,0.00,,---,0.60,111.00,VWS V14.01,2013-02-10 21:25:00,
2013-02-10 15:26:00,63.5,60.2,29.89,WNW,302,0.0,3.0,89,0.00,,---,0.60,151.00,VWS V14.01,2013-02-10 21:26:00,
2013-02-10 15:29:00,63.7,60.1,29.89,WNW,302,0.0,3.0,88,0.00,,---,0.60,97.00,VWS V14.01,2013-02-10 21:29:00,
2013-02-10 15:30:00,63.7,60.1,29.89,WNW,302,0.0,3.0,88,0.00,,---,0.60,97.00,VWS V14.01,2013-02-10 21:30:00,
2013-02-10 15:31:00,63.6,60.0,29.89,WNW,303,2.0,3.0,88,0.00,,---,0.60,91.00,VWS V14.01,2013-02-10 21:31:00,
2013-02-10 15:34:00,63.7,60.1,29.89,NNW,327,0.0,3.0,88,0.00,,---,0.60,88.00,VWS V14.01,2013-02-10 21:34:00,
2013-02-10 15:35:00,64.0,60.4,29.89,NNW,327,0.0,3.0,88,0.00,,---,0.60,98.00,VWS V14.01,2013-02-10 21:35:00,
2013-02-10 15:36:00,64.1,60.5,29.89,NNW,327,0.0,3.0,88,0.00,,---,0.60,98.00,VWS V14.01,2013-02-10 21:36:00,
2013-02-10 15:39:00,64.3,60.7,29.89,NNW,348,4.0,4.0,88,0.00,,---,0.60,130.00,VWS V14.01,2013-02-10 21:39:00,
2013-02-10 15:40:00,64.3,60.3,29.89,NW,321,1.0,4.0,87,0.00,,---,0.60,144.00,VWS V14.01,2013-02-10 21:40:00,
2013-02-10 15:41:00,64.1,59.8,29.89,NW,321,0.0,4.0,86,0.00,,---,0.60,135.00,VWS V14.01,2013-02-10 21:41:00,
2013-02-10 15:42:00,64.1,59.8,29.89,NW,321,0.0,4.0,86,0.00,,---,0.60,128.00,VWS V14.01,2013-02-10 21:42:00,
2013-02-10 15:44:00,64.0,59.7,29.89,NW,321,0.0,4.0,86,0.00,,---,0.60,121.00,VWS V14.01,2013-02-10 21:44:00,
2013-02-10 15:46:00,63.9,59.6,29.89,NW,321,0.0,4.0,86,0.00,,---,0.60,107.00,VWS V14.01,2013-02-10 21:46:00,
2013-02-10 15:47:00,63.9,59.6,29.89,NW,321,0.0,4.0,86,0.00,,---,0.60,98.00,VWS V14.01,2013-02-10 21:47:00,
2013-02-10 15:48:00,64.0,59.7,29.90,NW,321,0.0,4.0,86,0.00,,---,0.60,84.00,VWS V14.01,2013-02-10 21:48:00,
2013-02-10 15:49:00,64.0,60.1,29.90,NW,321,0.0,4.0,87,0.00,,---,0.60,69.00,VWS V14.01,2013-02-10 21:49:00,
2013-02-10 15:53:00,63.8,59.9,29.90,NW,321,0.0,4.0,87,0.00,,---,0.60,65.00,VWS V14.01,2013-02-10 21:53:00,
2013-02-10 15:57:00,63.9,60.0,29.90,NW,321,0.0,4.0,87,0.00,,---,0.60,81.00,VWS V14.01,2013-02-10 21:57:00,
2013-02-10 15:58:00,63.9,60.3,29.90,NW,321,0.0,4.0,88,0.00,,---,0.60,81.00,VWS V14.01,2013-02-10 21:58:00,
2013-02-10 15:59:00,64.1,60.5,29.90,NW,321,0.0,4.0,88,0.00,,---,0.60,100.00,VWS V14.01,2013-02-10 21:59:00,
2013-02-10 16:00:00,64.1,60.5,29.90,NW,321,0.0,4.0,88,0.00,,---,0.60,100.00,VWS V14.01,2013-02-10 22:00:00,
2013-02-10 16:03:00,64.7,61.1,29.88,NW,321,0.0,1.0,88,0.00,,---,0.60,116.00,VWS V14.01,2013-02-10 22:03:00,
2013-02-10 16:04:00,64.8,60.8,29.88,NW,321,0.0,1.0,87,0.00,,---,0.60,116.00,VWS V14.01,2013-02-10 22:04:00,
2013-02-10 16:05:00,64.7,60.4,29.88,NW,321,0.0,3.0,86,0.00,,---,0.60,123.00,VWS V14.01,2013-02-10 22:05:00,
2013-02-10 16:09:00,64.7,60.8,29.89,NW,321,0.0,3.0,87,0.00,,---,0.60,107.00,VWS V14.01,2013-02-10 22:09:00,
2013-02-10 16:10:00,64.6,60.7,29.89,NW,321,0.0,3.0,87,0.00,,---,0.60,105.00,VWS V14.01,2013-02-10 22:10:00,
2013-02-10 16:15:00,64.2,60.3,29.90,NW,321,0.0,3.0,87,0.00,,---,0.60,74.00,VWS V14.01,2013-02-10 22:15:00,
2013-02-10 16:18:00,64.1,60.2,29.92,NW,321,0.0,3.0,87,0.00,,---,0.60,44.00,VWS V14.01,2013-02-10 22:18:00,
2013-02-10 16:22:00,64.1,60.2,29.91,NW,321,0.0,3.0,87,0.00,,---,0.60,93.00,VWS V14.01,2013-02-10 22:22:00,
2013-02-10 16:23:00,64.1,60.5,29.91,NW,321,0.0,3.0,88,0.00,,---,0.60,95.00,VWS V14.01,2013-02-10 22:23:00,
2013-02-10 16:24:00,64.1,60.5,29.91,NW,321,0.0,3.0,88,0.00,,---,0.60,95.00,VWS V14.01,2013-02-10 22:24:00,
2013-02-10 16:25:00,64.2,60.6,29.90,NW,322,2.0,3.0,88,0.00,,---,0.60,109.00,VWS V14.01,2013-02-10 22:25:00,
2013-02-10 16:27:00,64.4,60.5,29.89,NW,323,0.0,3.0,87,0.00,,---,0.60,118.00,VWS V14.01,2013-02-10 22:27:00,
2013-02-10 16:28:00,64.5,60.9,29.89,NW,323,0.0,3.0,88,0.00,,---,0.60,116.00,VWS V14.01,2013-02-10 22:28:00,
2013-02-10 16:30:00,64.3,60.3,29.90,NW,323,0.0,1.0,87,0.00,,---,0.60,102.00,VWS V14.01,2013-02-10 22:30:00,
2013-02-10 16:33:00,64.1,60.2,29.90,NW,323,2.0,2.0,87,0.00,,---,0.60,46.00,VWS V14.01,2013-02-10 22:33:00,
2013-02-10 16:34:00,64.0,60.1,29.90,NW,323,1.0,2.0,87,0.00,,---,0.60,49.00,VWS V14.01,2013-02-10 22:34:00,
2013-02-10 16:35:00,64.0,60.1,29.89,NW,323,1.0,2.0,87,0.00,,---,0.60,49.00,VWS V14.01,2013-02-10 22:35:00,
2013-02-10 16:39:00,64.1,60.2,29.90,NW,323,0.0,2.0,87,0.00,,---,0.60,35.00,VWS V14.01,2013-02-10 22:39:00,
2013-02-10 16:42:00,64.0,60.1,29.90,NW,323,0.0,2.0,87,0.00,,---,0.60,42.00,VWS V14.01,2013-02-10 22:42:00,
2013-02-10 16:46:00,64.1,60.5,29.90,NW,323,0.0,2.0,88,0.00,,---,0.60,98.00,VWS V14.01,2013-02-10 22:46:00,
2013-02-10 16:47:00,64.1,60.2,29.89,NW,323,0.0,2.0,87,0.00,,---,0.60,98.00,VWS V14.01,2013-02-10 22:47:00,
2013-02-10 16:48:00,64.2,60.6,29.89,NW,323,0.0,2.0,88,0.00,,---,0.60,102.00,VWS V14.01,2013-02-10 22:48:00,
2013-02-10 16:51:00,64.4,60.5,29.89,NW,323,0.0,2.0,87,0.00,,---,0.60,88.00,VWS V14.01,2013-02-10 22:51:00,
2013-02-10 16:54:00,64.4,60.5,29.90,NW,323,0.0,2.0,87,0.00,,---,0.60,81.00,VWS V14.01,2013-02-10 22:54:00,
2013-02-10 16:56:00,64.1,60.2,29.91,NW,323,0.0,2.0,87,0.00,,---,0.60,60.00,VWS V14.01,2013-02-10 22:56:00,
2013-02-10 16:57:00,64.1,60.5,29.91,NW,323,0.0,2.0,88,0.00,,---,0.60,58.00,VWS V14.01,2013-02-10 22:57:00,
2013-02-10 16:59:00,64.3,60.7,29.91,NW,323,0.0,2.0,88,0.00,,---,0.60,63.00,VWS V14.01,2013-02-10 22:59:00,
2013-02-10 17:00:00,64.3,60.7,29.91,NW,323,0.0,2.0,88,0.00,,---,0.60,63.00,VWS V14.01,2013-02-10 23:00:00,
2013-02-10 17:01:00,64.3,60.7,29.91,NW,323,0.0,0.0,88,0.00,,---,0.60,33.00,VWS V14.01,2013-02-10 23:01:00,
2013-02-10 17:02:00,64.3,60.7,29.91,NW,323,0.0,0.0,88,0.00,,---,0.60,28.00,VWS V14.01,2013-02-10 23:02:00,
2013-02-10 17:05:00,64.3,60.7,29.91,NW,323,0.0,1.0,88,0.00,,---,0.60,25.00,VWS V14.01,2013-02-10 23:05:00,
2013-02-10 17:07:00,64.3,60.7,29.91,NW,323,0.0,1.0,88,0.00,,---,0.60,25.00,VWS V14.01,2013-02-10 23:07:00,
2013-02-10 17:08:00,64.3,60.7,29.91,NW,323,0.0,1.0,88,0.00,,---,0.60,25.00,VWS V14.01,2013-02-10 23:08:00,
2013-02-10 17:10:00,64.3,60.7,29.92,NW,323,0.0,1.0,88,0.00,,---,0.60,25.00,VWS V14.01,2013-02-10 23:10:00,
2013-02-10 17:12:00,64.2,60.6,29.92,NW,323,0.0,1.0,88,0.00,,---,0.60,21.00,VWS V14.01,2013-02-10 23:12:00,
2013-02-10 17:13:00,64.2,60.3,29.92,NW,323,0.0,1.0,87,0.00,,---,0.60,21.00,VWS V14.01,2013-02-10 23:13:00,
2013-02-10 17:16:00,64.1,60.2,29.92,NW,323,0.0,1.0,87,0.00,,---,0.60,26.00,VWS V14.01,2013-02-10 23:16:00,
2013-02-10 17:18:00,64.2,60.3,29.92,NW,323,0.0,1.0,87,0.00,,---,0.60,21.00,VWS V14.01,2013-02-10 23:18:00,
2013-02-10 17:21:00,64.1,60.2,29.92,NW,323,0.0,1.0,87,0.00,,---,0.60,11.00,VWS V14.01,2013-02-10 23:21:00,
2013-02-10 17:22:00,64.1,60.2,29.92,NW,323,0.0,1.0,87,0.00,,---,0.60,11.00,VWS V14.01,2013-02-10 23:22:00,
2013-02-10 17:23:00,64.1,60.5,29.92,NW,323,0.0,1.0,88,0.00,,---,0.60,12.00,VWS V14.01,2013-02-10 23:23:00,
2013-02-10 17:26:00,64.1,60.5,29.92,NW,323,0.0,1.0,88,0.00,,---,0.60,12.00,VWS V14.01,2013-02-10 23:26:00,
2013-02-10 17:27:00,64.1,60.5,29.91,NW,323,0.0,1.0,88,0.00,,---,0.60,12.00,VWS V14.01,2013-02-10 23:27:00,
2013-02-10 17:30:00,64.1,60.5,29.91,NW,323,0.0,1.0,88,0.00,,---,0.60,12.00,VWS V14.01,2013-02-10 23:30:00,
2013-02-10 17:31:00,64.1,60.5,29.90,NW,323,0.0,0.0,88,0.00,,---,0.60,14.00,VWS V14.01,2013-02-10 23:31:00,
2013-02-10 17:32:00,64.1,60.5,29.90,NW,323,0.0,0.0,88,0.00,,---,0.60,14.00,VWS V14.01,2013-02-10 23:32:00,
2013-02-10 17:35:00,64.1,60.5,29.92,NW,323,2.0,2.0,88,0.00,,---,0.60,5.00,VWS V14.01,2013-02-10 23:35:00,
2013-02-10 17:37:00,64.0,60.4,29.93,NW,323,1.0,3.0,88,0.00,,---,0.60,0.00,VWS V14.01,2013-02-10 23:37:00,
2013-02-10 17:39:00,63.9,60.6,29.94,NW,323,1.0,3.0,89,0.01,,---,0.61,0.00,VWS V14.01,2013-02-10 23:39:00,
2013-02-10 17:41:00,63.8,60.5,29.94,NW,323,0.0,3.0,89,0.01,,---,0.61,0.00,VWS V14.01,2013-02-10 23:41:00,
2013-02-10 17:42:00,63.8,60.5,29.95,NW,323,0.0,3.0,89,0.01,,---,0.61,0.00,VWS V14.01,2013-02-10 23:42:00,
2013-02-10 17:44:00,63.7,60.4,29.94,NW,323,0.0,3.0,89,0.01,,---,0.61,0.00,VWS V14.01,2013-02-10 23:44:00,
2013-02-10 17:46:00,63.6,60.3,29.93,NW,323,0.0,3.0,89,0.01,,---,0.61,0.00,VWS V14.01,2013-02-10 23:46:00,
2013-02-10 17:50:00,63.6,60.3,29.93,NW,323,0.0,3.0,89,0.01,,---,0.61,0.00,VWS V14.01,2013-02-10 23:50:00,
2013-02-10 17:52:00,63.5,60.2,29.93,NW,323,0.0,3.0,89,0.01,,---,0.61,0.00,VWS V14.01,2013-02-10 23:52:00,
2013-02-10 17:55:00,63.5,60.2,29.93,NW,323,0.0,3.0,89,0.01,,---,0.61,0.00,VWS V14.01,2013-02-10 23:55:00,
2013-02-10 17:56:00,63.5,60.2,29.93,NW,323,0.0,3.0,89,0.01,,---,0.61,0.00,VWS V14.01,2013-02-10 23:56:00,
2013-02-10 17:58:00,63.5,60.5,29.93,NW,323,0.0,3.0,90,0.01,,---,0.61,0.00,VWS V14.01,2013-02-10 23:58:00,
2013-02-10 18:00:00,63.4,60.4,29.93,NW,323,0.0,3.0,90,0.01,,---,0.61,0.00,VWS V14.01,2013-02-11 00:00:00,
2013-02-10 18:01:00,63.4,60.4,29.93,NW,323,0.0,0.0,90,0.01,,---,0.61,0.00,VWS V14.01,2013-02-11 00:01:00,
2013-02-10 18:02:00,63.3,60.3,29.92,NW,323,0.0,0.0,90,0.01,,---,0.61,0.00,VWS V14.01,2013-02-11 00:02:00,
2013-02-10 18:06:00,63.3,60.3,29.93,NW,323,0.0,0.0,90,0.01,,---,0.61,0.00,VWS V14.01,2013-02-11 00:06:00,
2013-02-10 18:07:00,63.3,60.3,29.93,NW,323,0.0,0.0,90,0.01,,---,0.61,0.00,VWS V14.01,2013-02-11 00:07:00,
2013-02-10 18:08:00,63.2,60.2,29.93,NW,323,0.0,1.0,90,0.01,,---,0.61,0.00,VWS V14.01,2013-02-11 00:08:00,
2013-02-10 18:09:00,63.2,60.2,29.93,NW,323,0.0,1.0,90,0.01,,---,0.61,0.00,VWS V14.01,2013-02-11 00:09:00,
2013-02-10 18:12:00,63.1,60.1,29.93,NW,323,0.0,1.0,90,0.01,,---,0.61,0.00,VWS V14.01,2013-02-11 00:12:00,
2013-02-10 18:13:00,63.1,60.1,29.93,NW,323,0.0,1.0,90,0.01,,---,0.61,0.00,VWS V14.01,2013-02-11 00:13:00,
2013-02-10 18:17:00,63.0,60.0,29.94,NW,323,0.0,1.0,90,0.01,,---,0.61,0.00,VWS V14.01,2013-02-11 00:17:00,
2013-02-10 18:18:00,63.0,60.0,29.94,NW,323,0.0,1.0,90,0.01,,---,0.61,0.00,VWS V14.01,2013-02-11 00:18:00,
2013-02-10 18:19:00,62.9,59.9,29.93,NW,323,0.0,1.0,90,0.01,,---,0.61,0.00,VWS V14.01,2013-02-11 00:19:00,
2013-02-10 18:23:00,62.9,60.2,29.92,NW,323,0.0,1.0,91,0.01,,---,0.61,0.00,VWS V14.01,2013-02-11 00:23:00,
2013-02-10 18:24:00,62.9,60.2,29.92,NW,323,0.0,1.0,91,0.01,,---,0.61,0.00,VWS V14.01,2013-02-11 00:24:00,
2013-02-10 18:25:00,62.8,60.1,29.93,NW,323,0.0,1.0,91,0.01,,---,0.61,0.00,VWS V14.01,2013-02-11 00:25:00,
2013-02-10 18:28:00,62.7,60.0,29.95,NW,323,1.0,3.0,91,0.01,,---,0.61,0.00,VWS V14.01,2013-02-11 00:28:00,
2013-02-10 18:29:00,62.6,59.9,29.95,NW,323,1.0,3.0,91,0.01,,---,0.61,0.00,VWS V14.01,2013-02-11 00:29:00,
2013-02-10 18:30:00,62.5,59.8,29.96,NW,323,0.0,1.0,91,0.01,,---,0.61,0.00,VWS V14.01,2013-02-11 00:30:00,
2013-02-10 18:34:00,62.4,60.0,29.96,NW,323,0.0,1.0,92,0.01,,---,0.61,0.00,VWS V14.01,2013-02-11 00:34:00,
2013-02-10 18:35:00,62.4,60.0,29.96,NW,323,1.0,1.0,92,0.01,,---,0.61,0.00,VWS V14.01,2013-02-11 00:35:00,
2013-02-10 18:36:00,62.4,60.0,29.96,NW,323,0.0,1.0,92,0.01,,---,0.61,0.00,VWS V14.01,2013-02-11 00:36:00,
2013-02-10 18:40:00,62.3,60.0,29.96,NW,323,0.0,1.0,92,0.01,,---,0.61,0.00,VWS V14.01,2013-02-11 00:40:00,
2013-02-10 18:41:00,62.3,60.0,29.95,NW,323,0.0,1.0,92,0.01,,---,0.61,0.00,VWS V14.01,2013-02-11 00:41:00,
2013-02-10 18:42:00,62.2,59.8,29.95,NW,323,0.0,1.0,92,0.01,,---,0.61,0.00,VWS V14.01,2013-02-11 00:42:00,
2013-02-10 18:46:00,62.2,59.8,29.95,NW,323,0.0,1.0,92,0.01,,---,0.61,0.00,VWS V14.01,2013-02-11 00:46:00,
2013-02-10 18:47:00,62.2,59.8,29.95,NW,323,0.0,1.0,92,0.01,,---,0.61,0.00,VWS V14.01,2013-02-11 00:47:00,
2013-02-10 18:49:00,62.1,59.8,29.95,NW,323,0.0,1.0,92,0.01,,---,0.61,0.00,VWS V14.01,2013-02-11 00:49:00,
2013-02-10 18:52:00,62.1,59.8,29.96,NW,323,0.0,1.0,92,0.01,,---,0.61,0.00,VWS V14.01,2013-02-11 00:52:00,
2013-02-10 18:56:00,62.0,59.7,29.95,NW,323,0.0,1.0,92,0.01,,---,0.61,0.00,VWS V14.01,2013-02-11 00:56:00,
2013-02-10 18:57:00,62.0,59.7,29.95,NW,323,0.0,1.0,92,0.01,,---,0.61,0.00,VWS V14.01,2013-02-11 00:57:00,
2013-02-10 18:58:00,62.0,59.7,29.94,NW,323,0.0,1.0,92,0.01,,---,0.61,0.00,VWS V14.01,2013-02-11 00:58:00,
2013-02-10 19:00:00,62.0,59.7,29.94,NW,323,0.0,1.0,92,0.01,,---,0.61,0.00,VWS V14.01,2013-02-11 01:00:00,
2013-02-10 19:01:00,62.0,59.7,29.94,NW,323,0.0,0.0,92,0.00,,---,0.61,0.00,VWS V14.01,2013-02-11 01:01:00,
2013-02-10 19:02:00,62.0,59.7,29.94,NW,323,0.0,0.0,92,0.00,,---,0.61,0.00,VWS V14.01,2013-02-11 01:02:00,
2013-02-10 19:03:00,62.0,60.0,29.94,NW,323,0.0,0.0,93,0.00,,---,0.61,0.00,VWS V14.01,2013-02-11 01:03:00,
2013-02-10 19:06:00,61.9,59.9,29.93,NW,323,0.0,0.0,93,0.00,,---,0.61,0.00,VWS V14.01,2013-02-11 01:06:00,
2013-02-10 19:08:00,61.9,59.9,29.94,NW,323,2.0,3.0,93,0.00,,---,0.61,0.00,VWS V14.01,2013-02-11 01:08:00,
2013-02-10 19:09:00,61.9,59.9,29.95,NW,323,2.0,3.0,93,0.00,,---,0.61,0.00,VWS V14.01,2013-02-11 01:09:00,
2013-02-10 19:11:00,61.9,59.9,29.95,NW,323,0.0,3.0,93,0.00,,---,0.61,0.00,VWS V14.01,2013-02-11 01:11:00,
2013-02-10 19:14:00,61.8,59.8,29.94,NW,323,1.0,3.0,93,0.00,,---,0.61,0.00,VWS V14.01,2013-02-11 01:14:00,
2013-02-10 19:15:00,61.8,59.8,29.94,NW,323,0.0,3.0,93,0.00,,---,0.61,0.00,VWS V14.01,2013-02-11 01:15:00,
2013-02-10 19:17:00,61.7,59.7,29.94,NW,323,0.0,3.0,93,0.00,,---,0.61,0.00,VWS V14.01,2013-02-11 01:17:00,
2013-02-10 19:20:00,61.7,59.7,29.93,NW,323,0.0,3.0,93,0.00,,---,0.61,0.00,VWS V14.01,2013-02-11 01:20:00,
2013-02-10 19:21:00,61.7,59.7,29.93,NW,323,0.0,3.0,93,0.00,,---,0.61,0.00,VWS V14.01,2013-02-11 01:21:00,
2013-02-10 19:22:00,61.7,59.7,29.94,NW,323,0.0,3.0,93,0.00,,---,0.61,0.00,VWS V14.01,2013-02-11 01:22:00,
2013-02-10 19:27:00,61.6,59.6,29.95,NW,323,0.0,3.0,93,0.00,,---,0.61,0.00,VWS V14.01,2013-02-11 01:27:00,
2013-02-10 19:28:00,61.6,59.6,29.95,NW,323,0.0,3.0,93,0.00,,---,0.61,0.00,VWS V14.01,2013-02-11 01:28:00,
2013-02-10 19:29:00,61.6,59.6,29.95,NW,323,0.0,3.0,93,0.00,,---,0.61,0.00,VWS V14.01,2013-02-11 01:29:00,
2013-02-10 19:30:00,61.6,59.6,29.95,NW,323,0.0,3.0,93,0.00,,---,0.61,0.00,VWS V14.01,2013-02-11 01:30:00,
2013-02-10 19:33:00,61.5,59.5,29.96,NW,323,0.0,1.0,93,0.00,,---,0.61,0.00,VWS V14.01,2013-02-11 01:33:00,
2013-02-10 19:35:00,61.5,59.5,29.96,NW,323,0.0,1.0,93,0.00,,---,0.61,0.00,VWS V14.01,2013-02-11 01:35:00,
2013-02-10 19:38:00,61.5,59.5,29.96,NW,323,0.0,1.0,93,0.00,,---,0.61,0.00,VWS V14.01,2013-02-11 01:38:00,
2013-02-10 19:39:00,61.5,59.5,29.96,NW,323,0.0,1.0,93,0.00,,---,0.61,0.00,VWS V14.01,2013-02-11 01:39:00,
2013-02-10 19:43:00,61.4,59.4,29.97,NW,323,1.0,1.0,93,0.00,,---,0.61,0.00,VWS V14.01,2013-02-11 01:43:00,
2013-02-10 19:44:00,61.4,59.7,29.97,NW,323,1.0,2.0,94,0.00,,---,0.61,0.00,VWS V14.01,2013-02-11 01:44:00,
2013-02-10 19:48:00,61.4,59.7,29.97,NW,323,0.0,2.0,94,0.00,,---,0.61,0.00,VWS V14.01,2013-02-11 01:48:00,
2013-02-10 19:49:00,61.4,59.7,29.98,NW,323,0.0,2.0,94,0.00,,---,0.61,0.00,VWS V14.01,2013-02-11 01:49:00,
2013-02-10 19:50:00,61.4,59.7,29.98,NW,323,0.0,2.0,94,0.00,,---,0.61,0.00,VWS V14.01,2013-02-11 01:50:00,
2013-02-10 19:54:00,61.4,59.7,29.99,NW,323,0.0,2.0,94,0.00,,---,0.61,0.00,VWS V14.01,2013-02-11 01:54:00,
2013-02-10 19:55:00,61.4,59.7,29.99,NW,323,0.0,2.0,94,0.00,,---,0.61,0.00,VWS V14.01,2013-02-11 01:55:00,
2013-02-10 19:56:00,61.4,59.7,29.99,NW,323,0.0,2.0,94,0.00,,---,0.61,0.00,VWS V14.01,2013-02-11 01:56:00,
2013-02-10 19:59:00,61.3,59.6,29.99,NW,323,0.0,2.0,94,0.00,,---,0.61,0.00,VWS V14.01,2013-02-11 01:59:00,
2013-02-10 20:00:00,61.4,59.7,29.99,NW,323,0.0,0.0,94,0.00,,---,0.61,0.00,VWS V14.01,2013-02-11 02:00:00,
2013-02-10 20:02:00,61.3,59.6,30.00,NW,323,0.0,0.0,94,0.00,,---,0.61,0.00,VWS V14.01,2013-02-11 02:02:00,
2013-02-10 20:03:00,61.3,59.6,30.00,NW,323,0.0,0.0,94,0.00,,---,0.61,0.00,VWS V14.01,2013-02-11 02:03:00,
2013-02-10 20:07:00,61.3,59.6,29.99,NW,323,0.0,0.0,94,0.00,,---,0.61,0.00,VWS V14.01,2013-02-11 02:07:00,
2013-02-10 20:09:00,61.3,59.6,29.97,NW,323,0.0,1.0,94,0.00,,---,0.61,0.00,VWS V14.01,2013-02-11 02:09:00,
2013-02-10 20:10:00,61.3,59.6,29.98,NW,323,0.0,1.0,94,0.00,,---,0.61,0.00,VWS V14.01,2013-02-11 02:10:00,
2013-02-10 20:13:00,61.3,59.6,29.99,NW,323,0.0,1.0,94,0.00,,---,0.61,0.00,VWS V14.01,2013-02-11 02:13:00,
2013-02-10 20:14:00,61.3,59.6,29.99,NW,323,0.0,1.0,94,0.00,,---,0.61,0.00,VWS V14.01,2013-02-11 02:14:00,
2013-02-10 20:15:00,61.2,59.5,29.99,NW,323,0.0,1.0,94,0.00,,---,0.61,0.00,VWS V14.01,2013-02-11 02:15:00,
2013-02-10 20:17:00,61.2,59.5,29.99,NW,323,0.0,1.0,94,0.00,,---,0.61,0.00,VWS V14.01,2013-02-11 02:17:00,
2013-02-10 20:18:00,61.2,59.5,29.99,NW,323,0.0,1.0,94,0.00,,---,0.61,0.00,VWS V14.01,2013-02-11 02:18:00,
2013-02-10 20:20:00,61.2,59.5,29.99,NW,323,0.0,1.0,94,0.00,,---,0.61,0.00,VWS V14.01,2013-02-11 02:20:00,
2013-02-10 20:23:00,61.2,59.5,29.98,NW,323,0.0,1.0,94,0.00,,---,0.61,0.00,VWS V14.01,2013-02-11 02:23:00,
2013-02-10 20:25:00,61.1,59.4,29.98,NW,323,0.0,1.0,94,0.00,,---,0.61,0.00,VWS V14.01,2013-02-11 02:25:00,
2013-02-10 20:26:00,61.1,59.4,29.98,NW,323,0.0,1.0,94,0.00,,---,0.61,0.00,VWS V14.01,2013-02-11 02:26:00,
2013-02-10 20:28:00,61.1,59.4,29.99,NW,323,0.0,1.0,94,0.00,,---,0.61,0.00,VWS V14.01,2013-02-11 02:28:00,
2013-02-10 20:30:00,61.1,59.4,29.99,NW,323,0.0,1.0,94,0.00,,---,0.61,0.00,VWS V14.01,2013-02-11 02:30:00,
2013-02-10 20:31:00,61.1,59.4,29.99,NW,323,0.0,0.0,94,0.00,,---,0.61,0.00,VWS V14.01,2013-02-11 02:31:00,
2013-02-10 20:32:00,61.1,59.4,29.99,NW,323,0.0,0.0,94,0.00,,---,0.61,0.00,VWS V14.01,2013-02-11 02:32:00,
2013-02-10 20:35:00,61.1,59.4,29.99,NW,323,0.0,0.0,94,0.00,,---,0.61,0.00,VWS V14.01,2013-02-11 02:35:00,
2013-02-10 20:36:00,61.1,59.4,29.99,NW,323,0.0,0.0,94,0.00,,---,0.61,0.00,VWS V14.01,2013-02-11 02:36:00,
2013-02-10 20:38:00,61.1,59.4,29.98,NW,323,0.0,0.0,94,0.00,,---,0.61,0.00,VWS V14.01,2013-02-11 02:38:00,
2013-02-10 20:41:00,61.0,59.3,29.97,NW,323,0.0,0.0,94,0.00,,---,0.61,0.00,VWS V14.01,2013-02-11 02:41:00,
2013-02-10 20:43:00,61.0,59.3,29.97,NW,323,0.0,0.0,94,0.00,,---,0.61,0.00,VWS V14.01,2013-02-11 02:43:00,
2013-02-10 20:44:00,61.0,59.3,29.97,NW,323,0.0,0.0,94,0.00,,---,0.61,0.00,VWS V14.01,2013-02-11 02:44:00,
2013-02-10 20:46:00,61.0,59.3,29.98,NW,323,0.0,1.0,94,0.00,,---,0.61,0.00,VWS V14.01,2013-02-11 02:46:00,
2013-02-10 20:49:00,60.9,59.2,29.99,NW,323,0.0,2.0,94,0.00,,---,0.61,0.00,VWS V14.01,2013-02-11 02:49:00,
2013-02-10 20:50:00,60.9,59.2,29.99,NW,323,0.0,2.0,94,0.00,,---,0.61,0.00,VWS V14.01,2013-02-11 02:50:00,
2013-02-10 20:51:00,60.9,59.2,30.00,NW,323,0.0,2.0,94,0.00,,---,0.61,0.00,VWS V14.01,2013-02-11 02:51:00,
2013-02-10 20:52:00,60.9,59.2,29.99,NW,323,0.0,2.0,94,0.00,,---,0.61,0.00,VWS V14.01,2013-02-11 02:52:00,
2013-02-10 20:56:00,60.8,59.1,29.99,NW,323,2.0,2.0,94,0.00,,---,0.61,0.00,VWS V14.01,2013-02-11 02:56:00,
2013-02-10 20:59:00,60.8,59.1,30.00,NW,323,0.0,2.0,94,0.00,,---,0.61,0.00,VWS V14.01,2013-02-11 02:59:00,
2013-02-10 21:00:00,60.8,59.1,29.99,NW,323,0.0,1.0,94,0.00,,---,0.61,0.00,VWS V14.01,2013-02-11 03:00:00,
2013-02-10 21:02:00,60.7,59.0,29.98,NW,323,0.0,1.0,94,0.00,,---,0.61,0.00,VWS V14.01,2013-02-11 03:02:00,
2013-02-10 21:04:00,60.7,59.0,29.98,NW,323,0.0,1.0,94,0.00,,---,0.61,0.00,VWS V14.01,2013-02-11 03:04:00,
2013-02-10 21:07:00,60.7,59.0,29.98,NW,323,0.0,1.0,94,0.00,,---,0.61,0.00,VWS V14.01,2013-02-11 03:07:00,
2013-02-10 21:08:00,60.7,59.0,29.98,NW,323,0.0,1.0,94,0.00,,---,0.61,0.00,VWS V14.01,2013-02-11 03:08:00,
2013-02-10 21:09:00,60.7,59.0,29.98,NW,323,0.0,1.0,94,0.00,,---,0.61,0.00,VWS V14.01,2013-02-11 03:09:00,
2013-02-10 21:12:00,60.6,58.9,30.00,NW,323,0.0,1.0,94,0.00,,---,0.61,0.00,VWS V14.01,2013-02-11 03:12:00,
2013-02-10 21:13:00,60.6,58.9,30.00,NW,323,0.0,1.0,94,0.00,,---,0.61,0.00,VWS V14.01,2013-02-11 03:13:00,
2013-02-10 21:14:00,60.6,58.9,29.99,NW,323,0.0,1.0,94,0.00,,---,0.61,0.00,VWS V14.01,2013-02-11 03:14:00,
2013-02-10 21:15:00,60.6,58.9,29.99,NW,323,0.0,1.0,94,0.00,,---,0.61,0.00,VWS V14.01,2013-02-11 03:15:00,
2013-02-10 21:18:00,60.6,59.2,29.99,NW,323,0.0,1.0,95,0.00,,---,0.61,0.00,VWS V14.01,2013-02-11 03:18:00,
2013-02-10 21:20:00,60.6,59.2,30.00,NW,323,1.0,1.0,95,0.00,,---,0.61,0.00,VWS V14.01,2013-02-11 03:20:00,
2013-02-10 21:21:00,60.5,59.1,30.00,NW,323,2.0,2.0,95,0.00,,---,0.61,0.00,VWS V14.01,2013-02-11 03:21:00,
2013-02-10 21:24:00,60.5,59.1,30.01,NW,323,0.0,2.0,95,0.00,,---,0.61,0.00,VWS V14.01,2013-02-11 03:24:00,
2013-02-10 21:25:00,60.5,59.1,30.01,NW,323,0.0,2.0,95,0.00,,---,0.61,0.00,VWS V14.01,2013-02-11 03:25:00,
2013-02-10 21:27:00,60.5,59.1,30.01,NW,323,0.0,2.0,95,0.00,,---,0.61,0.00,VWS V14.01,2013-02-11 03:27:00,
2013-02-10 21:28:00,60.5,59.1,30.01,NW,323,0.0,2.0,95,0.00,,---,0.61,0.00,VWS V14.01,2013-02-11 03:28:00,
2013-02-10 21:29:00,60.5,59.1,30.01,NW,323,0.0,2.0,95,0.00,,---,0.61,0.00,VWS V14.01,2013-02-11 03:29:00,
2013-02-10 21:30:00,60.5,59.1,30.01,NW,323,0.0,2.0,95,0.00,,---,0.61,0.00,VWS V14.01,2013-02-11 03:30:00,
2013-02-10 21:33:00,60.5,59.1,30.00,NW,323,0.0,0.0,95,0.00,,---,0.61,0.00,VWS V14.01,2013-02-11 03:33:00,
2013-02-10 21:34:00,60.5,59.1,30.00,NW,323,0.0,0.0,95,0.00,,---,0.61,0.00,VWS V14.01,2013-02-11 03:34:00,
2013-02-10 21:35:00,60.4,59.0,30.00,NW,323,0.0,0.0,95,0.00,,---,0.61,0.00,VWS V14.01,2013-02-11 03:35:00,
2013-02-10 21:38:00,60.4,59.0,30.00,NW,323,0.0,0.0,95,0.00,,---,0.61,0.00,VWS V14.01,2013-02-11 03:38:00,
2013-02-10 21:39:00,60.4,59.0,30.00,NW,323,0.0,0.0,95,0.00,,---,0.61,0.00,VWS V14.01,2013-02-11 03:39:00,
2013-02-10 21:42:00,60.4,59.0,30.01,NW,323,0.0,0.0,95,0.00,,---,0.61,0.00,VWS V14.01,2013-02-11 03:42:00,
2013-02-10 21:44:00,60.4,59.0,30.01,NW,323,0.0,0.0,95,0.00,,---,0.61,0.00,VWS V14.01,2013-02-11 03:44:00,
2013-02-10 21:45:00,60.4,59.0,30.01,NW,323,0.0,0.0,95,0.00,,---,0.61,0.00,VWS V14.01,2013-02-11 03:45:00,
2013-02-10 21:48:00,60.4,59.0,30.01,NW,323,0.0,0.0,95,0.00,,---,0.61,0.00,VWS V14.01,2013-02-11 03:48:00,
2013-02-10 21:50:00,60.4,59.0,30.01,NW,323,0.0,1.0,95,0.00,,---,0.61,0.00,VWS V14.01,2013-02-11 03:50:00,
2013-02-10 21:51:00,60.4,59.0,30.01,NW,323,0.0,2.0,95,0.00,,---,0.61,0.00,VWS V14.01,2013-02-11 03:51:00,
2013-02-10 21:52:00,60.4,59.0,30.00,NW,323,0.0,2.0,95,0.00,,---,0.61,0.00,VWS V14.01,2013-02-11 03:52:00,
2013-02-10 21:56:00,60.4,59.0,30.00,NW,323,0.0,2.0,95,0.00,,---,0.61,0.00,VWS V14.01,2013-02-11 03:56:00,
2013-02-10 21:57:00,60.4,59.0,30.00,NW,323,0.0,2.0,95,0.00,,---,0.61,0.00,VWS V14.01,2013-02-11 03:57:00,
2013-02-10 21:59:00,60.4,59.0,30.00,NW,323,0.0,2.0,95,0.00,,---,0.61,0.00,VWS V14.01,2013-02-11 03:59:00,
2013-02-10 22:00:00,60.4,59.0,30.00,NW,323,0.0,2.0,95,0.00,,---,0.61,0.00,VWS V14.01,2013-02-11 04:00:00,
2013-02-10 22:01:00,60.3,58.9,29.99,NW,323,0.0,0.0,95,0.00,,---,0.61,0.00,VWS V14.01,2013-02-11 04:01:00,
2013-02-10 22:03:00,60.3,58.9,29.99,NW,323,0.0,0.0,95,0.00,,---,0.61,0.00,VWS V14.01,2013-02-11 04:03:00,
2013-02-10 22:04:00,60.3,58.9,29.98,NW,323,0.0,0.0,95,0.00,,---,0.61,0.00,VWS V14.01,2013-02-11 04:04:00,
2013-02-10 22:07:00,60.3,58.9,29.99,NW,323,0.0,1.0,95,0.00,,---,0.61,0.00,VWS V14.01,2013-02-11 04:07:00,
2013-02-10 22:08:00,60.3,58.9,29.99,NW,323,0.0,1.0,95,0.00,,---,0.61,0.00,VWS V14.01,2013-02-11 04:08:00,
2013-02-10 22:11:00,60.3,58.9,30.00,NW,323,0.0,1.0,95,0.00,,---,0.61,0.00,VWS V14.01,2013-02-11 04:11:00,
2013-02-10 22:12:00,60.3,58.9,29.99,NW,323,0.0,1.0,95,0.00,,---,0.61,0.00,VWS V14.01,2013-02-11 04:12:00,
2013-02-10 22:13:00,60.4,59.0,29.99,NW,323,0.0,1.0,95,0.00,,---,0.61,0.00,VWS V14.01,2013-02-11 04:13:00,
2013-02-10 22:14:00,60.3,58.9,29.99,NW,323,0.0,1.0,95,0.00,,---,0.61,0.00,VWS V14.01,2013-02-11 04:14:00,
2013-02-10 22:17:00,60.3,58.9,30.00,NW,323,0.0,1.0,95,0.00,,---,0.61,0.00,VWS V14.01,2013-02-11 04:17:00,
2013-02-10 22:18:00,60.3,58.9,29.99,NW,323,0.0,1.0,95,0.00,,---,0.61,0.00,VWS V14.01,2013-02-11 04:18:00,
2013-02-10 22:20:00,60.3,58.9,29.99,NW,323,0.0,1.0,95,0.00,,---,0.61,0.00,VWS V14.01,2013-02-11 04:20:00,
2013-02-10 22:22:00,60.3,58.9,29.99,NW,323,0.0,1.0,95,0.00,,---,0.61,0.00,VWS V14.01,2013-02-11 04:22:00,
2013-02-10 22:23:00,60.3,58.9,29.98,NW,323,0.0,1.0,95,0.00,,---,0.61,0.00,VWS V14.01,2013-02-11 04:23:00,
2013-02-10 22:24:00,60.3,58.9,29.98,NW,323,0.0,1.0,95,0.00,,---,0.61,0.00,VWS V14.01,2013-02-11 04:24:00,
2013-02-10 22:27:00,60.2,58.8,29.99,NW,323,0.0,1.0,95,0.00,,---,0.61,0.00,VWS V14.01,2013-02-11 04:27:00,
2013-02-10 22:30:00,60.2,58.8,29.99,NW,323,0.0,0.0,95,0.00,,---,0.61,0.00,VWS V14.01,2013-02-11 04:30:00,
2013-02-10 22:32:00,60.2,58.8,29.99,NW,323,0.0,0.0,95,0.00,,---,0.61,0.00,VWS V14.01,2013-02-11 04:32:00,
2013-02-10 22:33:00,60.2,58.8,29.99,NW,323,0.0,0.0,95,0.00,,---,0.61,0.00,VWS V14.01,2013-02-11 04:33:00,
2013-02-10 22:35:00,60.2,58.8,29.99,NW,323,0.0,0.0,95,0.00,,---,0.61,0.00,VWS V14.01,2013-02-11 04:35:00,
2013-02-10 22:38:00,60.1,58.7,29.99,NW,323,0.0,0.0,95,0.00,,---,0.61,0.00,VWS V14.01,2013-02-11 04:38:00,
2013-02-10 22:41:00,60.1,58.7,29.98,NW,323,0.0,0.0,95,0.00,,---,0.61,0.00,VWS V14.01,2013-02-11 04:41:00,
2013-02-10 22:42:00,60.1,58.7,29.99,NW,323,0.0,0.0,95,0.00,,---,0.61,0.00,VWS V14.01,2013-02-11 04:42:00,
2013-02-10 22:43:00,60.1,58.7,29.99,NW,323,0.0,0.0,95,0.00,,---,0.61,0.00,VWS V14.01,2013-02-11 04:43:00,
2013-02-10 22:44:00,60.1,58.7,29.99,NW,323,0.0,0.0,95,0.00,,---,0.61,0.00,VWS V14.01,2013-02-11 04:44:00,
2013-02-10 22:46:00,60.1,58.7,30.00,NW,323,1.0,2.0,95,0.00,,---,0.61,0.00,VWS V14.01,2013-02-11 04:46:00,
2013-02-10 22:48:00,60.0,58.6,30.00,NW,323,0.0,2.0,95,0.00,,---,0.61,0.00,VWS V14.01,2013-02-11 04:48:00,
2013-02-10 22:49:00,60.0,58.6,30.00,NW,323,0.0,2.0,95,0.00,,---,0.61,0.00,VWS V14.01,2013-02-11 04:49:00,
2013-02-10 22:51:00,60.0,58.6,30.00,NW,323,1.0,2.0,95,0.00,,---,0.61,0.00,VWS V14.01,2013-02-11 04:51:00,
2013-02-10 22:53:00,60.0,58.6,30.00,NW,323,0.0,2.0,95,0.00,,---,0.61,0.00,VWS V14.01,2013-02-11 04:53:00,
2013-02-10 22:55:00,60.0,58.6,30.00,NW,323,0.0,2.0,95,0.00,,---,0.61,0.00,VWS V14.01,2013-02-11 04:55:00,
2013-02-10 22:57:00,60.0,58.6,29.99,NW,323,0.0,2.0,95,0.00,,---,0.61,0.00,VWS V14.01,2013-02-11 04:57:00,
2013-02-10 23:00:00,60.0,58.6,29.99,NW,323,0.0,0.0,95,0.00,,---,0.61,0.00,VWS V14.01,2013-02-11 05:00:00,
2013-02-10 23:01:00,59.9,58.5,29.99,NW,323,0.0,0.0,95,0.00,,---,0.61,0.00,VWS V14.01,2013-02-11 05:01:00,
2013-02-10 23:05:00,59.9,58.5,30.00,NW,323,0.0,1.0,95,0.00,,---,0.61,0.00,VWS V14.01,2013-02-11 05:05:00,
2013-02-10 23:07:00,59.9,58.5,30.00,NW,323,0.0,1.0,95,0.00,,---,0.61,0.00,VWS V14.01,2013-02-11 05:07:00,
2013-02-10 23:10:00,59.9,58.5,30.00,NW,323,0.0,1.0,95,0.00,,---,0.61,0.00,VWS V14.01,2013-02-11 05:10:00,
2013-02-10 23:12:00,59.9,58.5,30.00,NW,323,0.0,1.0,95,0.00,,---,0.61,0.00,VWS V14.01,2013-02-11 05:12:00,
2013-02-10 23:13:00,59.9,58.5,30.00,NW,323,0.0,1.0,95,0.00,,---,0.61,0.00,VWS V14.01,2013-02-11 05:13:00,
2013-02-10 23:17:00,59.8,58.4,30.00,NW,323,0.0,1.0,95,0.00,,---,0.61,0.00,VWS V14.01,2013-02-11 05:17:00,
2013-02-10 23:18:00,59.8,58.4,29.99,NW,323,0.0,1.0,95,0.00,,---,0.61,0.00,VWS V14.01,2013-02-11 05:18:00,
2013-02-10 23:23:00,59.8,58.4,29.99,NW,323,0.0,1.0,95,0.00,,---,0.61,0.00,VWS V14.01,2013-02-11 05:23:00,
2013-02-10 23:24:00,59.8,58.4,29.99,NW,323,0.0,1.0,95,0.00,,---,0.61,0.00,VWS V14.01,2013-02-11 05:24:00,
2013-02-10 23:26:00,59.8,58.4,30.00,NW,323,0.0,1.0,95,0.00,,---,0.61,0.00,VWS V14.01,2013-02-11 05:26:00,
2013-02-10 23:28:00,59.8,58.4,30.00,NW,323,0.0,1.0,95,0.00,,---,0.61,0.00,VWS V14.01,2013-02-11 05:28:00,
2013-02-10 23:30:00,59.8,58.4,30.00,NW,323,1.0,2.0,95,0.00,,---,0.61,0.00,VWS V14.01,2013-02-11 05:30:00,
2013-02-10 23:31:00,59.8,58.4,29.99,NW,323,0.0,1.0,95,0.00,,---,0.61,0.00,VWS V14.01,2013-02-11 05:31:00,
2013-02-10 23:33:00,59.8,58.4,30.00,NW,323,0.0,1.0,95,0.00,,---,0.61,0.00,VWS V14.01,2013-02-11 05:33:00,
2013-02-10 23:35:00,59.7,58.3,30.00,NW,323,0.0,1.0,95,0.00,,---,0.61,0.00,VWS V14.01,2013-02-11 05:35:00,
2013-02-10 23:36:00,59.7,58.3,30.00,NW,323,0.0,1.0,95,0.00,,---,0.61,0.00,VWS V14.01,2013-02-11 05:36:00,
2013-02-10 23:37:00,59.7,58.3,30.00,NW,323,0.0,1.0,95,0.00,,---,0.61,0.00,VWS V14.01,2013-02-11 05:37:00,
2013-02-10 23:39:00,59.7,58.3,30.00,NW,323,0.0,1.0,95,0.00,,---,0.61,0.00,VWS V14.01,2013-02-11 05:39:00,
2013-02-10 23:41:00,59.7,58.3,30.00,NW,323,0.0,1.0,95,0.00,,---,0.61,0.00,VWS V14.01,2013-02-11 05:41:00,
2013-02-10 23:42:00,59.7,58.3,30.00,NW,323,0.0,1.0,95,0.00,,---,0.61,0.00,VWS V14.01,2013-02-11 05:42:00,
2013-02-10 23:47:00,59.7,58.6,30.01,NW,323,0.0,1.0,96,0.00,,---,0.61,0.00,VWS V14.01,2013-02-11 05:47:00,
2013-02-10 23:49:00,59.7,58.6,30.01,NW,323,0.0,1.0,96,0.00,,---,0.61,0.00,VWS V14.01,2013-02-11 05:49:00,
2013-02-10 23:53:00,59.7,58.6,30.01,NW,323,0.0,1.0,96,0.00,,---,0.61,0.00,VWS V14.01,2013-02-11 05:53:00,
2013-02-10 23:54:00,59.7,58.6,30.01,NW,323,0.0,1.0,96,0.00,,---,0.61,0.00,VWS V14.01,2013-02-11 05:54:00,
2013-02-10 23:57:00,59.7,58.6,30.02,NW,323,0.0,1.0,96,0.00,,---,0.61,0.00,VWS V14.01,2013-02-11 05:57:00,
2013-02-10 23:59:00,59.7,58.6,30.02,NW,323,0.0,1.0,96,0.00,,---,0.00,0.00,VWS V14.01,2013-02-11 05:59:00,